M I D A S
Marine Information and Data Acquisition System
Tripno 1141 of the Zeeleeuw from 2006-07-26 06:50:28 to 2006-07-26 14:25:48
Back to CruiseResearch ActivitiesStationsMapUnderway DataData graphs

EquipmentUnitsComment
TimeDGPSUTC
LatitudeDGPSDM.mWGS84
LongitudeDGPSDM.mWGS84
TemperatureSBE03/SBE38deg celciusITS90
ConductivitySBE21S/mITS90
SalinitySBE21 Practical Salinity Units
ChlorophylAChelsea fluorimeterg/lCalibrated in Aceton
Missing or incorrect values are displayed as -999
Sea surface data collected by the RV Zeeleeuw from 2006-07-26 06:41:01 to 2006-07-26 14:37:47
                                                                                    Next 1000 lines
Time Latitude Longitude Temperature Conductivity Salinity ChlorophylA
2006-07-26 06:41:11 51°13.602 2°56.094 26.8417 0.077867 0.355773 6.769657
2006-07-26 06:41:16 51°13.603 2°56.092 26.8198 0.077867 0.355769 6.769657
2006-07-26 06:41:21 51°13.603 2°56.09 26.8143 0.077867 0.35576 6.735947
2006-07-26 06:41:26 51°13.604 2°56.086 26.8277 0.077867 0.35576 6.735947
2006-07-26 06:41:31 51°13.605 2°56.082 26.8374 0.077867 0.355746 6.769657
2006-07-26 06:41:36 51°13.606 2°56.077 26.8362 0.077867 0.355746 6.769657
2006-07-26 06:41:41 51°13.607 2°56.072 26.8433 0.077867 0.35576 6.769657
2006-07-26 06:41:46 51°13.608 2°56.067 26.845 0.077867 0.355778 6.769657
2006-07-26 06:41:51 51°13.609 2°56.061 26.8422 0.077867 0.355791 6.769657
2006-07-26 06:41:56 51°13.61 2°56.055 26.8506 0.077867 0.355791 6.769657
2006-07-26 06:42:01 51°13.611 2°56.049 26.8527 0.077867 0.355795 6.803366
2006-07-26 06:42:06 51°13.612 2°56.042 26.8555 0.077867 0.355782 6.769657
2006-07-26 06:42:11 51°13.614 2°56.036 26.85 0.077867 0.355769 6.735947
2006-07-26 06:42:16 51°13.615 2°56.028 26.8477 0.077867 0.355769 6.769657
2006-07-26 06:42:21 51°13.616 2°56.021 26.8504 0.077867 0.355764 6.735947
2006-07-26 06:42:26 51°13.618 2°56.013 26.854 0.077867 0.355764 6.735947
2006-07-26 06:42:31 51°13.619 2°56.005 26.8598 0.077867 0.355778 6.769657
2006-07-26 06:42:36 51°13.62 2°55.998 26.8652 0.077867 0.355791 6.769657
2006-07-26 06:42:41 51°13.622 2°55.99 26.8631 0.077867 0.3558 6.769657
2006-07-26 06:42:46 51°13.623 2°55.982 26.8677 0.077867 0.3558 6.735947
2006-07-26 06:42:51 51°13.625 2°55.975 26.8529 0.077867 0.3558 6.769657
2006-07-26 06:42:56 51°13.627 2°55.968 26.8518 0.077867 0.3558 6.769657
2006-07-26 06:43:01 51°13.628 2°55.96 26.8528 0.077867 0.355786 6.769657
2006-07-26 06:43:06 51°13.63 2°55.953 26.8473 0.077867 0.355782 6.769657
2006-07-26 06:43:11 51°13.632 2°55.946 26.855 0.077867 0.355782 6.769657
2006-07-26 06:43:16 51°13.634 2°55.939 26.854 0.077867 0.355786 6.735947
2006-07-26 06:43:21 51°13.636 2°55.932 26.8569 0.077867 0.355791 6.769657
2006-07-26 06:43:26 51°13.638 2°55.925 26.8585 0.077867 0.355791 6.769657
2006-07-26 06:43:31 51°13.641 2°55.918 26.8569 0.077867 0.3558 6.769657
2006-07-26 06:43:36 51°13.643 2°55.911 26.859 0.077867 0.355804 6.735947
2006-07-26 06:43:41 51°13.645 2°55.904 26.8595 0.077867 0.355809 6.769657
2006-07-26 06:43:46 51°13.648 2°55.897 26.8627 0.077867 0.355809 6.735947
2006-07-26 06:43:51 51°13.65 2°55.89 26.864 0.077867 0.355804 6.769657
2006-07-26 06:43:56 51°13.653 2°55.884 26.8661 0.077867 0.355804 6.769657
2006-07-26 06:44:01 51°13.656 2°55.877 26.8653 0.077867 0.3558 6.735947
2006-07-26 06:44:06 51°13.659 2°55.87 26.8671 0.077867 0.355804 6.735947
2006-07-26 06:44:11 51°13.661 2°55.863 26.8679 0.077867 0.3558 6.769657
2006-07-26 06:44:16 51°13.664 2°55.856 26.8652 0.077867 0.3558 6.769657
2006-07-26 06:44:21 51°13.667 2°55.85 26.8636 0.077867 0.355813 6.735947
2006-07-26 06:44:26 51°13.67 2°55.843 26.8637 0.077867 0.355813 6.735947
2006-07-26 06:44:31 51°13.673 2°55.837 26.8786 0.077867 0.355813 6.735947
2006-07-26 06:44:36 51°13.675 2°55.83 26.8775 0.077867 0.355813 6.735947
2006-07-26 06:44:41 51°13.679 2°55.823 26.8835 0.077867 0.355818 6.735947
2006-07-26 06:44:46 51°13.682 2°55.816 26.8871 0.077867 0.355813 6.769657
2006-07-26 06:44:51 51°13.685 2°55.809 26.8838 0.077867 0.355813 6.735947
2006-07-26 06:44:56 51°13.687 2°55.802 26.8857 0.077867 0.355813 6.735947
2006-07-26 06:45:01 51°13.69 2°55.795 26.881 0.077867 0.355813 6.769657
2006-07-26 06:45:06 51°13.693 2°55.788 26.8762 0.077867 0.355818 6.735947
2006-07-26 06:45:11 51°13.695 2°55.782 26.8723 0.077867 0.355818 6.769657
2006-07-26 06:45:16 51°13.698 2°55.776 26.8728 0.077867 0.355818 6.769657
2006-07-26 06:45:21 51°13.7 2°55.77 26.866 0.077867 0.355818 6.735947
2006-07-26 06:45:26 51°13.702 2°55.765 26.8678 0.077867 0.355818 6.735947
2006-07-26 06:45:31 51°13.704 2°55.76 26.8737 0.077867 0.355818 6.735947
2006-07-26 06:45:36 51°13.706 2°55.755 26.8841 0.077867 0.355822 6.769657
2006-07-26 06:45:41 51°13.707 2°55.751 26.8788 0.077867 0.355822 6.735947
2006-07-26 06:45:46 51°13.709 2°55.748 26.8799 0.077867 0.355813 6.735947
2006-07-26 06:45:51 51°13.71 2°55.745 26.8851 0.077867 0.355813 6.735947
2006-07-26 06:45:56 51°13.71 2°55.743 26.8866 0.077867 0.355813 6.735947
2006-07-26 06:46:01 51°13.711 2°55.741 26.8887 0.077867 0.355818 6.702238
2006-07-26 06:46:06 51°13.712 2°55.74 26.8883 0.077867 0.355818 6.735947
2006-07-26 06:46:11 51°13.712 2°55.74 26.8909 0.077867 0.355827 6.702238
2006-07-26 06:46:16 51°13.713 2°55.74 26.8914 0.077867 0.355835 6.735947
2006-07-26 06:46:21 51°13.713 2°55.741 26.8918 0.077867 0.355844 6.735947
2006-07-26 06:46:26 51°13.713 2°55.742 26.8929 0.077867 0.355844 6.735947
2006-07-26 06:46:31 51°13.714 2°55.743 26.895 0.077867 0.355835 6.735947
2006-07-26 06:46:36 51°13.715 2°55.745 26.8929 0.077867 0.355831 6.735947
2006-07-26 06:46:41 51°13.715 2°55.747 26.8915 0.077867 0.355822 6.735947
2006-07-26 06:46:46 51°13.716 2°55.749 26.8892 0.077867 0.355822 6.735947
2006-07-26 06:46:51 51°13.717 2°55.752 26.8871 0.077867 0.355827 6.735947
2006-07-26 06:46:56 51°13.718 2°55.753 26.889 0.077867 0.355827 6.735947
2006-07-26 06:47:01 51°13.719 2°55.754 26.8642 0.077867 0.355835 6.735947
2006-07-26 06:47:06 51°13.72 2°55.755 26.8704 0.077867 0.355844 6.735947
2006-07-26 06:47:11 51°13.72 2°55.754 26.8464 0.077867 0.355844 6.769657
2006-07-26 06:47:16 51°13.72 2°55.753 26.8194 0.077867 0.355844 6.702238
2006-07-26 06:47:21 51°13.719 2°55.751 26.8539 0.077867 0.35584 6.735947
2006-07-26 06:47:26 51°13.718 2°55.748 26.8455 0.077867 0.35584 6.735947
2006-07-26 06:47:31 51°13.717 2°55.745 26.852 0.077867 0.355827 6.702238
2006-07-26 06:47:36 51°13.716 2°55.742 26.8753 0.077867 0.355822 6.735947
2006-07-26 06:47:41 51°13.714 2°55.739 26.8785 0.077867 0.355831 6.735947
2006-07-26 06:47:46 51°13.713 2°55.736 26.8777 0.077867 0.355835 6.735947
2006-07-26 06:47:51 51°13.712 2°55.733 26.8737 0.077867 0.35584 6.769657
2006-07-26 06:47:56 51°13.711 2°55.732 26.8778 0.077867 0.35584 6.769657
2006-07-26 06:48:01 51°13.711 2°55.73 26.8764 0.077867 0.355849 6.769657
2006-07-26 06:48:06 51°13.711 2°55.729 26.8795 0.077867 0.355849 6.735947
2006-07-26 06:48:11 51°13.712 2°55.729 26.88 0.077867 0.355835 6.735947
2006-07-26 06:48:16 51°13.713 2°55.728 26.8815 0.077867 0.355822 6.735947
2006-07-26 06:48:21 51°13.714 2°55.728 26.8836 0.077867 0.355813 6.702238
2006-07-26 06:48:26 51°13.716 2°55.728 26.8839 0.077867 0.355813 6.702238
2006-07-26 06:48:31 51°13.718 2°55.728 26.8873 0.077867 0.355818 6.735947
2006-07-26 06:48:36 51°13.721 2°55.727 26.8921 0.077867 0.355831 6.735947
2006-07-26 06:48:41 51°13.723 2°55.725 26.8928 0.077867 0.355853 6.735947
2006-07-26 06:48:46 51°13.726 2°55.723 26.8931 0.077867 0.355871 6.735947
2006-07-26 06:48:51 51°13.73 2°55.721 26.8939 0.077867 0.355871 6.702238
2006-07-26 06:48:56 51°13.733 2°55.718 26.8902 0.077867 0.355871 6.702238
2006-07-26 06:49:01 51°13.737 2°55.714 26.8859 0.077867 0.355867 6.735947
2006-07-26 06:49:06 51°13.741 2°55.711 26.8821 0.077867 0.355858 6.702238
2006-07-26 06:49:11 51°13.746 2°55.706 26.8817 0.077867 0.355849 6.702238
2006-07-26 06:49:16 51°13.751 2°55.701 26.865 0.077867 0.355835 6.702238
2006-07-26 06:49:21 51°13.757 2°55.696 26.8568 0.077867 0.355831 6.702238
2006-07-26 06:49:26 51°13.763 2°55.69 26.8411 0.077867 0.355831 6.702238
2006-07-26 06:49:31 51°13.77 2°55.684 26.8398 0.077867 0.355831 6.702238
2006-07-26 06:49:36 51°13.778 2°55.678 26.8159 0.077867 0.35584 6.702238
2006-07-26 06:49:41 51°13.785 2°55.671 26.8062 0.077867 0.355849 6.702238
2006-07-26 06:49:46 51°13.794 2°55.664 26.7939 0.077867 0.355858 6.735947
2006-07-26 06:49:51 51°13.803 2°55.656 26.7971 0.077867 0.355862 6.735947
2006-07-26 06:49:56 51°13.812 2°55.649 26.7997 0.077867 0.355862 6.735947
2006-07-26 06:50:01 51°13.822 2°55.641 26.771 0.077867 0.355867 6.735947
2006-07-26 06:50:06 51°13.832 2°55.634 26.7724 0.077867 0.355867 6.735947
2006-07-26 06:50:11 51°13.843 2°55.627 26.7546 0.077867 0.355862 6.735947
2006-07-26 06:50:16 51°13.854 2°55.62 26.7727 0.077867 0.355862 6.702238
2006-07-26 06:50:21 51°13.865 2°55.611 26.7726 0.077867 0.355862 6.735947
2006-07-26 06:50:26 51°13.876 2°55.603 26.7977 0.077867 0.355862 6.735947
2006-07-26 06:50:31 51°13.887 2°55.595 26.8026 0.077867 0.355867 6.702238
2006-07-26 06:50:36 51°13.898 2°55.587 26.8018 0.077867 0.355876 6.702238
2006-07-26 06:50:41 51°13.909 2°55.579 26.7936 0.077867 0.355876 6.702238
2006-07-26 06:50:46 51°13.921 2°55.57 26.7887 0.077867 0.355876 6.702238
2006-07-26 06:50:51 51°13.932 2°55.562 26.7725 0.077867 0.355876 6.735947
2006-07-26 06:50:56 51°13.944 2°55.553 26.7782 0.077867 0.355876 6.735947
2006-07-26 06:51:01 51°13.956 2°55.545 26.7784 0.077867 0.35588 6.735947
2006-07-26 06:51:06 51°13.967 2°55.536 26.7757 0.077867 0.355876 6.735947
2006-07-26 06:51:11 51°13.979 2°55.528 26.7714 0.077867 0.35588 6.735947
2006-07-26 06:51:16 51°13.99 2°55.52 26.7582 0.077867 0.35588 6.702238
2006-07-26 06:51:21 51°14.001 2°55.513 26.7546 0.077867 0.35588 6.702238
2006-07-26 06:51:26 51°14.012 2°55.506 26.7708 0.077867 0.35588 6.702238
2006-07-26 06:51:31 51°14.022 2°55.499 26.8011 0.077867 0.35588 6.735947
2006-07-26 06:51:36 51°14.032 2°55.492 26.8383 0.077867 0.35588 6.702238
2006-07-26 06:51:41 51°14.042 2°55.485 26.8579 0.077867 0.355885 6.735947
2006-07-26 06:51:46 51°14.052 2°55.478 26.8597 0.077867 0.355885 6.735947
2006-07-26 06:51:51 51°14.061 2°55.47 26.8402 0.077867 0.355889 6.735947
2006-07-26 06:51:56 51°14.071 2°55.463 26.8357 0.077867 0.355889 6.735947
2006-07-26 06:52:01 51°14.08 2°55.456 26.8493 0.077867 0.355893 6.735947
2006-07-26 06:52:06 51°14.09 2°55.449 26.8484 0.077867 0.355885 6.702238
2006-07-26 06:52:11 51°14.099 2°55.442 26.8502 0.077867 0.355889 6.702238
2006-07-26 06:52:16 51°14.108 2°55.434 26.8558 0.077867 0.355889 6.702238
2006-07-26 06:52:21 51°14.117 2°55.427 26.8551 0.077867 0.355889 6.702238
2006-07-26 06:52:26 51°14.126 2°55.42 26.8563 0.077867 0.355889 6.702238
2006-07-26 06:52:31 51°14.136 2°55.412 26.8607 0.077867 0.355889 6.702238
2006-07-26 06:52:36 51°14.145 2°55.405 26.8601 0.077867 0.355893 6.702238
2006-07-26 06:52:41 51°14.154 2°55.397 26.8665 0.077867 0.355893 6.702238
2006-07-26 06:52:46 51°14.163 2°55.388 26.8636 0.077867 0.355898 6.702238
2006-07-26 06:52:51 51°14.171 2°55.38 26.8612 0.077867 0.355898 6.702238
2006-07-26 06:52:56 51°14.18 2°55.372 26.8676 0.077867 0.355898 6.702238
2006-07-26 06:53:01 51°14.189 2°55.363 26.8716 0.077867 0.355898 6.702238
2006-07-26 06:53:06 51°14.198 2°55.354 26.8696 0.077867 0.355902 6.702238
2006-07-26 06:53:11 51°14.206 2°55.345 26.8835 0.077867 0.355902 6.702238
2006-07-26 06:53:16 51°14.215 2°55.335 26.8723 0.077867 0.355902 6.702238
2006-07-26 06:53:21 51°14.223 2°55.325 26.14 0.077867 0.355907 6.702238
2006-07-26 06:53:26 51°14.231 2°55.314 25.7195 0.077867 0.355907 6.702238
2006-07-26 06:53:31 51°14.239 2°55.304 24.9621 0.077867 0.3556 12.129452
2006-07-26 06:53:36 51°14.247 2°55.293 24.6507 0.334464 1.633304 11.253007
2006-07-26 06:53:41 51°14.255 2°55.282 24.4281 0.419471 2.079902 13.039606
2006-07-26 06:53:46 51°14.262 2°55.27 24.4006 0.609166 3.112823 11.219298
2006-07-26 06:53:51 51°14.269 2°55.259 24.2945 0.675448 3.511029 11.724939
2006-07-26 06:53:56 51°14.277 2°55.247 24.1903 0.675448 3.511029 11.724939
2006-07-26 06:54:01 51°14.284 2°55.235 24.1696 0.969072 5.209327 10.140597
2006-07-26 06:54:06 51°14.291 2°55.223 24.1321 1.932661 11.121179 8.85964
2006-07-26 06:54:11 51°14.298 2°55.21 24.123 2.886603 17.437271 8.387708
2006-07-26 06:54:16 51°14.305 2°55.198 24.1475 4.042938 25.553238 8.151742
2006-07-26 06:54:21 51°14.312 2°55.185 24.1009 4.132424 26.376005 8.050614
2006-07-26 06:54:26 51°14.319 2°55.173 24.1006 4.132424 26.376005 8.050614
2006-07-26 06:54:31 51°14.325 2°55.16 24.0765 4.145602 26.604579 8.084324
2006-07-26 06:54:36 51°14.332 2°55.147 24.1019 4.12737 26.582031 8.016905
2006-07-26 06:54:41 51°14.339 2°55.134 24.0638 4.096701 26.448761 8.016905
2006-07-26 06:54:46 51°14.345 2°55.121 24.0732 4.087638 26.419401 8.050614
2006-07-26 06:54:51 51°14.352 2°55.108 24.0579 4.07752 26.382414 8.050614
2006-07-26 06:54:56 51°14.359 2°55.095 24.0283 4.07752 26.382414 8.050614
2006-07-26 06:55:01 51°14.366 2°55.082 23.999 4.066665 26.323743 8.084324
2006-07-26 06:55:06 51°14.373 2°55.069 24.0042 3.737262 23.990069 8.084324
2006-07-26 06:55:11 51°14.381 2°55.055 24.0082 4.041055 26.169672 8.118033
2006-07-26 06:55:16 51°14.389 2°55.04 23.9944 4.044112 26.205594 8.118033
2006-07-26 06:55:21 51°14.398 2°55.024 23.999 4.04738 26.245017 8.118033
2006-07-26 06:55:26 51°14.407 2°55.008 23.9453 4.04738 26.245017 8.118033
2006-07-26 06:55:31 51°14.417 2°54.991 23.9213 4.049171 26.265305 8.118033
2006-07-26 06:55:36 51°14.427 2°54.974 23.8836 4.064981 26.387493 8.151742
2006-07-26 06:55:41 51°14.437 2°54.956 23.8833 4.081317 26.523448 8.118033
2006-07-26 06:55:46 51°14.448 2°54.938 23.8863 4.099657 26.667435 8.118033
2006-07-26 06:55:51 51°14.459 2°54.92 23.8896 4.118102 26.812008 8.151742
2006-07-26 06:55:56 51°14.469 2°54.9 23.8281 4.118102 26.812008 8.151742
2006-07-26 06:56:01 51°14.481 2°54.881 23.8016 4.134123 26.933232 8.219161
2006-07-26 06:56:06 51°14.493 2°54.863 23.812 4.156785 27.112795 8.219161
2006-07-26 06:56:11 51°14.505 2°54.846 23.819 4.186931 27.34344 8.185452
2006-07-26 06:56:16 51°14.518 2°54.829 23.7207 4.207591 27.514904 8.252871
2006-07-26 06:56:21 51°14.531 2°54.813 23.7103 4.237845 27.751332 8.252871
2006-07-26 06:56:26 51°14.545 2°54.797 23.6444 4.237845 27.751332 8.252871
2006-07-26 06:56:31 51°14.559 2°54.782 23.5698 4.268731 27.981659 8.252871
2006-07-26 06:56:36 51°14.573 2°54.767 23.5261 4.295507 28.187316 8.28658
2006-07-26 06:56:41 51°14.588 2°54.753 23.4731 4.320281 28.388814 8.28658
2006-07-26 06:56:46 51°14.602 2°54.739 23.432 4.345266 28.584644 8.28658
2006-07-26 06:56:51 51°14.616 2°54.724 23.3758 4.365192 28.746675 8.28658
2006-07-26 06:56:56 51°14.63 2°54.709 23.3446 4.365192 28.746675 8.28658
2006-07-26 06:57:01 51°14.644 2°54.694 23.3168 4.382798 28.901886 8.28658
2006-07-26 06:57:06 51°14.658 2°54.678 23.2747 4.405255 29.091886 8.320289
2006-07-26 06:57:11 51°14.672 2°54.663 23.2552 4.434776 29.341522 8.353999
2006-07-26 06:57:16 51°14.686 2°54.647 23.2182 4.466617 29.62425 8.455127
2006-07-26 06:57:21 51°14.7 2°54.632 23.216 4.497405 29.888672 8.556255
2006-07-26 06:57:26 51°14.714 2°54.617 23.1943 4.497405 29.888672 8.556255
2006-07-26 06:57:31 51°14.728 2°54.602 23.1732 4.526929 30.146431 8.623674
2006-07-26 06:57:36 51°14.743 2°54.588 23.1853 4.549072 30.34872 8.691093
2006-07-26 06:57:41 51°14.757 2°54.573 23.1689 4.564573 30.49883 8.758512
2006-07-26 06:57:46 51°14.771 2°54.559 23.1564 4.589141 30.708818 8.792221
2006-07-26 06:57:51 51°14.785 2°54.544 23.1545 4.606119 30.865749 8.82593
2006-07-26 06:57:56 51°14.8 2°54.529 23.1043 4.606119 30.865749 8.82593
2006-07-26 06:58:01 51°14.814 2°54.514 23.0903 4.616347 30.962576 8.85964
2006-07-26 06:58:06 51°14.828 2°54.499 23.0774 4.626576 31.061451 8.85964
2006-07-26 06:58:11 51°14.842 2°54.484 23.0752 4.638492 31.172235 8.85964
2006-07-26 06:58:16 51°14.856 2°54.469 23.0652 4.646612 31.243243 8.893349
2006-07-26 06:58:21 51°14.87 2°54.454 23.0349 4.652306 31.297973 8.893349
2006-07-26 06:58:26 51°14.884 2°54.439 23.0128 4.652306 31.297973 8.893349
2006-07-26 06:58:31 51°14.898 2°54.424 23.0395 4.656735 31.340365 8.85964
2006-07-26 06:58:36 51°14.912 2°54.41 23.0104 4.663379 31.403293 8.85964
2006-07-26 06:58:41 51°14.927 2°54.395 23.0064 4.670339 31.472991 8.82593
2006-07-26 06:58:46 51°14.941 2°54.38 22.9674 4.67519 31.524945 8.792221
2006-07-26 06:58:51 51°14.955 2°54.366 22.9613 4.677932 31.556222 8.724802
2006-07-26 06:58:56 51°14.968 2°54.351 22.9446 4.677932 31.556222 8.724802
2006-07-26 06:59:01 51°14.982 2°54.336 22.9247 4.681729 31.597898 8.724802
2006-07-26 06:59:06 51°14.996 2°54.32 22.9204 4.684682 31.635173 8.691093
2006-07-26 06:59:11 51°15.009 2°54.305 22.9287 4.685842 31.651193 8.657383
2006-07-26 06:59:16 51°15.023 2°54.289 22.9304 4.687107 31.668987 8.589965
2006-07-26 06:59:21 51°15.037 2°54.274 22.8994 4.689111 31.693343 8.488836
2006-07-26 06:59:26 51°15.05 2°54.258 22.9121 4.689111 31.693343 8.488836
2006-07-26 06:59:31 51°15.064 2°54.242 22.9052 4.692064 31.73218 8.421418
2006-07-26 06:59:36 51°15.077 2°54.226 22.8815 4.69333 31.755367 8.320289
2006-07-26 06:59:41 51°15.091 2°54.21 22.8829 4.695228 31.783369 8.28658
2006-07-26 06:59:46 51°15.105 2°54.194 22.8741 4.696494 31.806602 8.28658
2006-07-26 06:59:51 51°15.118 2°54.178 22.8528 4.696389 31.811168 8.185452
2006-07-26 06:59:56 51°15.132 2°54.163 22.8537 4.696389 31.811168 8.185452
2006-07-26 07:00:01 51°15.146 2°54.147 22.8445 4.696916 31.821508 8.151742
2006-07-26 07:00:06 51°15.16 2°54.132 22.8645 4.698182 31.83794 8.151742
2006-07-26 07:00:11 51°15.174 2°54.116 22.8387 4.698814 31.848114 8.151742
2006-07-26 07:00:16 51°15.188 2°54.101 22.8296 4.699447 31.862204 8.151742
2006-07-26 07:00:21 51°15.202 2°54.085 22.8286 4.699869 31.870297 8.084324
2006-07-26 07:00:26 51°15.216 2°54.069 22.8241 4.699869 31.870297 8.084324
2006-07-26 07:00:31 51°15.23 2°54.052 22.8214 4.701346 31.889826 8.118033
2006-07-26 07:00:36 51°15.244 2°54.036 22.8116 4.701873 31.90412 8.084324
2006-07-26 07:00:41 51°15.257 2°54.019 22.8067 4.702506 31.91481 8.084324
2006-07-26 07:00:46 51°15.271 2°54.003 22.8024 4.702295 31.915661 8.084324
2006-07-26 07:00:51 51°15.285 2°53.987 22.8094 4.702401 31.923822 8.118033
2006-07-26 07:00:56 51°15.299 2°53.971 22.8105 4.702401 31.923822 8.118033
2006-07-26 07:01:01 51°15.314 2°53.955 22.8155 4.702717 31.932609 8.151742
2006-07-26 07:01:06 51°15.328 2°53.94 22.8015 4.702507 31.933953 8.118033
2006-07-26 07:01:11 51°15.343 2°53.927 22.8007 4.702085 31.934185 8.151742
2006-07-26 07:01:16 51°15.358 2°53.914 22.8041 4.702718 31.946366 8.151742
2006-07-26 07:01:21 51°15.373 2°53.902 22.8042 4.702929 31.952395 8.151742
2006-07-26 07:01:26 51°15.388 2°53.891 22.7982 4.702929 31.952395 8.151742
2006-07-26 07:01:31 51°15.403 2°53.88 22.7896 4.702507 31.952629 8.151742
2006-07-26 07:01:36 51°15.419 2°53.869 22.782 4.702296 31.952501 8.151742
2006-07-26 07:01:41 51°15.434 2°53.859 22.7944 4.701347 31.945282 8.151742
2006-07-26 07:01:46 51°15.45 2°53.848 22.787 4.701558 31.948854 8.151742
2006-07-26 07:01:51 51°15.465 2°53.837 22.7856 4.701663 31.951623 8.151742
2006-07-26 07:01:56 51°15.48 2°53.825 22.7906 4.701663 31.951623 8.151742
2006-07-26 07:02:01 51°15.495 2°53.814 22.7753 4.699765 31.939152 8.185452
2006-07-26 07:02:06 51°15.51 2°53.802 22.7842 4.699238 31.93465 8.151742
2006-07-26 07:02:11 51°15.525 2°53.79 22.7743 4.699976 31.944199 8.118033
2006-07-26 07:02:16 51°15.541 2°53.778 22.7749 4.699344 31.942829 8.151742
2006-07-26 07:02:21 51°15.556 2°53.767 22.7738 4.698184 31.93548 8.151742
2006-07-26 07:02:26 51°15.571 2°53.755 22.773 4.698184 31.93548 8.151742
2006-07-26 07:02:31 51°15.586 2°53.744 22.7641 4.698606 31.940657 8.118033
2006-07-26 07:02:36 51°15.602 2°53.733 22.7675 4.698606 31.942132 8.084324
2006-07-26 07:02:41 51°15.617 2°53.721 22.7761 4.69966 31.951141 8.084324
2006-07-26 07:02:46 51°15.632 2°53.71 22.7643 4.698606 31.947053 8.050614
2006-07-26 07:02:51 51°15.648 2°53.699 22.7603 4.6985 31.947728 8.050614
2006-07-26 07:02:56 51°15.663 2°53.688 22.7622 4.6985 31.947728 8.050614
2006-07-26 07:03:01 51°15.678 2°53.676 22.7581 4.697868 31.947342 8.016905
2006-07-26 07:03:06 51°15.693 2°53.665 22.7467 4.698078 31.948455 7.983195
2006-07-26 07:03:11 51°15.708 2°53.653 22.7443 4.69734 31.945298 8.016905
2006-07-26 07:03:16 51°15.723 2°53.64 22.7332 4.697551 31.945919 7.983195
2006-07-26 07:03:21 51°15.738 2°53.628 22.7332 4.696919 31.942087 7.915777
2006-07-26 07:03:26 51°15.753 2°53.616 22.7261 4.696919 31.942087 7.915777
2006-07-26 07:03:31 51°15.769 2°53.604 22.7365 4.69713 31.946154 7.882067
2006-07-26 07:03:36 51°15.784 2°53.593 22.7187 4.697024 31.947814 7.780939
2006-07-26 07:03:41 51°15.799 2°53.581 22.7095 4.696708 31.94639 7.780939
2006-07-26 07:03:46 51°15.815 2°53.57 22.709 4.69597 31.944217 7.74723
2006-07-26 07:03:51 51°15.83 2°53.56 22.7017 4.698184 31.968964 7.71352
2006-07-26 07:03:56 51°15.845 2°53.55 22.6917 4.698184 31.968964 7.71352
2006-07-26 07:04:01 51°15.861 2°53.541 22.6776 4.696708 31.96265 7.679811
2006-07-26 07:04:06 51°15.876 2°53.532 22.6671 4.696603 31.965791 7.679811
2006-07-26 07:04:11 51°15.892 2°53.523 22.6663 4.697341 31.972894 7.71352
2006-07-26 07:04:16 51°15.908 2°53.514 22.6506 4.697025 31.97443 7.71352
2006-07-26 07:04:21 51°15.924 2°53.505 22.6507 4.69597 31.970342 7.679811
2006-07-26 07:04:26 51°15.939 2°53.496 22.6474 4.69597 31.970342 7.679811
2006-07-26 07:04:31 51°15.955 2°53.487 22.6367 4.697869 31.992212 7.71352
2006-07-26 07:04:36 51°15.971 2°53.477 22.6255 4.689749 31.936738 7.71352
2006-07-26 07:04:41 51°15.986 2°53.468 22.6286 4.695549 31.987862 7.71352
2006-07-26 07:04:46 51°16.002 2°53.458 22.6085 4.69576 31.998366 7.71352
2006-07-26 07:04:51 51°16.018 2°53.449 22.6065 4.694389 31.99137 7.74723
2006-07-26 07:04:56 51°16.033 2°53.439 22.6032 4.694389 31.99137 7.74723
2006-07-26 07:05:01 51°16.049 2°53.43 22.6001 4.693651 31.995628 7.780939
2006-07-26 07:05:06 51°16.065 2°53.42 22.592 4.693229 31.994883 7.780939
2006-07-26 07:05:11 51°16.08 2°53.411 22.5845 4.69323 32.001809 7.814648
2006-07-26 07:05:16 51°16.096 2°53.402 22.5844 4.69323 32.009234 7.814648
2006-07-26 07:05:21 51°16.112 2°53.392 22.5766 4.692808 32.01047 7.915777
2006-07-26 07:05:26 51°16.127 2°53.383 22.5789 4.692808 32.01047 7.915777
2006-07-26 07:05:31 51°16.143 2°53.373 22.5729 4.693019 32.018025 7.915777
2006-07-26 07:05:36 51°16.159 2°53.364 22.5643 4.692492 32.021431 7.949486
2006-07-26 07:05:41 51°16.174 2°53.354 22.5551 4.692387 32.024096 7.983195
2006-07-26 07:05:46 51°16.19 2°53.344 22.5502 4.692914 32.033579 7.983195
2006-07-26 07:05:51 51°16.205 2°53.334 22.5638 4.694074 32.049389 8.016905
2006-07-26 07:05:56 51°16.221 2°53.324 22.5594 4.694074 32.049389 8.016905
2006-07-26 07:06:01 51°16.236 2°53.314 22.547 4.693441 32.048028 8.050614
2006-07-26 07:06:06 51°16.252 2°53.304 22.5334 4.693336 32.052188 8.050614
2006-07-26 07:06:11 51°16.268 2°53.294 22.5375 4.692282 32.047603 8.084324
2006-07-26 07:06:16 51°16.283 2°53.285 22.5297 4.691649 32.046242 8.050614
2006-07-26 07:06:21 51°16.299 2°53.275 22.5247 4.694075 32.071247 8.118033
2006-07-26 07:06:26 51°16.315 2°53.266 22.5161 4.694075 32.071247 8.118033
2006-07-26 07:06:31 51°16.33 2°53.256 22.5142 4.693758 32.071811 8.084324
2006-07-26 07:06:36 51°16.346 2°53.247 22.5083 4.691755 32.057481 8.084324
2006-07-26 07:06:41 51°16.361 2°53.237 22.5051 4.69302 32.069646 8.050614
2006-07-26 07:06:46 51°16.377 2°53.227 22.5078 4.69418 32.083493 8.016905
2006-07-26 07:06:51 51°16.393 2°53.218 22.4982 4.692599 32.078855 8.016905
2006-07-26 07:06:56 51°16.408 2°53.209 22.4962 4.692599 32.078855 8.016905
2006-07-26 07:07:01 51°16.424 2°53.199 22.4819 4.692388 32.079729 7.983195
2006-07-26 07:07:06 51°16.44 2°53.19 22.4851 4.692599 32.084828 7.949486
2006-07-26 07:07:11 51°16.455 2°53.181 22.4782 4.692177 32.08857 7.983195
2006-07-26 07:07:16 51°16.471 2°53.171 22.4719 4.691861 32.090133 7.949486
2006-07-26 07:07:21 51°16.486 2°53.161 22.4638 4.690912 32.085358 7.882067
2006-07-26 07:07:26 51°16.502 2°53.15 22.4584 4.690912 32.085358 7.882067
2006-07-26 07:07:31 51°16.517 2°53.14 22.4581 4.692072 32.098226 7.848358
2006-07-26 07:07:36 51°16.533 2°53.13 22.4485 4.69281 32.105872 7.848358
2006-07-26 07:07:41 51°16.548 2°53.12 22.4492 4.692705 32.111048 7.780939
2006-07-26 07:07:46 51°16.564 2°53.109 22.438 4.691861 32.109574 7.780939
2006-07-26 07:07:51 51°16.578 2°53.097 22.4279 4.691123 32.107411 7.71352
2006-07-26 07:07:56 51°16.593 2°53.082 22.4181 4.691123 32.107411 7.71352
2006-07-26 07:08:01 51°16.606 2°53.066 22.4139 4.588311 31.324129 7.679811
2006-07-26 07:08:06 51°16.619 2°53.048 22.4092 4.693021 32.131938 7.646101
2006-07-26 07:08:11 51°16.631 2°53.029 22.4014 4.692494 32.130894 7.612392
2006-07-26 07:08:16 51°16.643 2°53.01 22.4004 4.692811 32.139314 7.544973
2006-07-26 07:08:19 51°16.65 2°52.998 22.3863 4.691334 32.130994 7.544973
2006-07-26 07:08:23 51°16.658 2°52.98 22.3821 4.691334 32.130994 7.544973
2006-07-26 07:08:26 51°16.664 2°52.967 22.376 4.689753 32.12836 7.443845
2006-07-26 07:08:32 51°16.676 2°52.939 22.3655 4.691335 32.142991 7.376426
2006-07-26 07:08:37 51°16.684 2°52.915 22.3638 4.689753 32.13936 7.443845
2006-07-26 07:08:42 51°16.692 2°52.891 22.3435 4.690702 32.153646 7.376426
2006-07-26 07:08:48 51°16.7 2°52.86 22.334 4.692706 32.173027 7.342717
2006-07-26 07:08:52 51°16.705 2°52.839 22.3314 4.692706 32.173027 7.342717
2006-07-26 07:08:57 51°16.711 2°52.812 22.3174 4.691546 32.169134 7.241589
2006-07-26 07:09:02 51°16.715 2°52.785 22.3019 4.692812 32.186867 7.275298
2006-07-26 07:09:07 51°16.719 2°52.758 22.3048 4.693972 32.202796 7.275298
2006-07-26 07:09:12 51°16.723 2°52.731 22.2841 4.694077 32.209126 7.207879
2006-07-26 07:09:16 51°16.725 2°52.709 22.2752 4.693972 32.215346 7.241589
2006-07-26 07:09:22 51°16.728 2°52.679 22.2587 4.693972 32.215346 7.241589
2006-07-26 07:09:27 51°16.73 2°52.655 22.251 4.694394 32.226122 7.275298
2006-07-26 07:09:32 51°16.731 2°52.634 22.2435 4.694183 32.233047 7.241589
2006-07-26 07:09:37 51°16.731 2°52.613 22.2322 4.694922 32.247776 7.275298
2006-07-26 07:09:42 51°16.73 2°52.595 22.2188 4.696082 32.263744 7.275298
2006-07-26 07:09:47 51°16.728 2°52.577 22.2167 4.695344 32.266629 7.309007
2006-07-26 07:09:52 51°16.726 2°52.561 22.206 4.695344 32.266629 7.309007
2006-07-26 07:09:57 51°16.724 2°52.547 22.2029 4.696188 32.281688 7.309007
2006-07-26 07:10:02 51°16.721 2°52.533 22.1941 4.696715 32.297854 7.309007
2006-07-26 07:10:07 51°16.719 2°52.52 22.188 4.697032 32.308367 7.275298
2006-07-26 07:10:12 51°16.717 2°52.508 22.1931 4.697032 32.317966 7.342717
2006-07-26 07:10:17 51°16.715 2°52.496 22.1917 4.697559 32.33214 7.342717
2006-07-26 07:10:22 51°16.713 2°52.485 22.1846 4.697876 32.342167 7.376426
2006-07-26 07:10:27 51°16.712 2°52.474 22.1731 4.697876 32.342167 7.376426
2006-07-26 07:10:32 51°16.711 2°52.464 22.1765 4.695872 32.33482 7.309007
2006-07-26 07:10:37 51°16.71 2°52.455 22.1723 4.697349 32.352279 7.275298
2006-07-26 07:10:42 51°16.709 2°52.446 22.1707 4.697982 32.362224 7.309007
2006-07-26 07:10:47 51°16.708 2°52.437 22.1691 4.6964 32.357119 7.309007
2006-07-26 07:10:52 51°16.708 2°52.428 22.1631 4.6964 32.357119 7.309007
2006-07-26 07:10:57 51°16.707 2°52.42 22.1594 4.696295 32.358333 7.309007
2006-07-26 07:11:02 51°16.707 2°52.412 22.1527 4.697349 32.368496 7.275298
2006-07-26 07:11:07 51°16.707 2°52.404 22.1476 4.697771 32.376316 7.309007
2006-07-26 07:11:12 51°16.707 2°52.396 22.1444 4.697982 32.383525 7.275298
2006-07-26 07:11:17 51°16.707 2°52.389 22.1416 4.699037 32.392679 7.241589
2006-07-26 07:11:22 51°16.706 2°52.382 22.1415 4.699037 32.392679 7.241589
2006-07-26 07:11:27 51°16.706 2°52.375 22.1438 4.697877 32.386772 7.275298
2006-07-26 07:11:32 51°16.706 2°52.368 22.1484 4.699142 32.400094 7.275298
2006-07-26 07:11:36 51°16.706 2°52.362 22.1423 4.697666 32.391237 7.241589
2006-07-26 07:11:42 51°16.706 2°52.354 22.1363 4.697455 32.395196 7.241589
2006-07-26 07:11:47 51°16.706 2°52.348 22.1288 4.698826 32.408322 7.207879
2006-07-26 07:11:52 51°16.706 2°52.342 22.1371 4.698826 32.408322 7.207879
2006-07-26 07:11:58 51°16.706 2°52.335 22.1333 4.69735 32.400987 7.207879
2006-07-26 07:12:02 51°16.707 2°52.33 22.1281 4.697244 32.402206 7.241589
2006-07-26 07:12:07 51°16.707 2°52.324 22.1233 4.697772 32.409837 7.17417
2006-07-26 07:12:12 51°16.707 2°52.318 22.1263 4.698721 32.417676 7.207879
2006-07-26 07:12:16 51°16.707 2°52.314 22.1287 4.69619 32.399144 7.241589
2006-07-26 07:12:22 51°16.707 2°52.307 22.1274 4.69619 32.399144 7.241589
2006-07-26 07:12:26 51°16.708 2°52.302 22.1288 4.697877 32.41472 7.207879
2006-07-26 07:12:32 51°16.709 2°52.295 22.1302 4.698194 32.420725 7.241589
2006-07-26 07:12:37 51°16.709 2°52.288 22.1224 4.699459 32.43152 7.17417
2006-07-26 07:12:42 51°16.71 2°52.282 22.118 4.699565 32.433862 7.207879
2006-07-26 07:12:47 51°16.711 2°52.275 22.1185 4.699037 32.432333 7.17417
2006-07-26 07:12:52 51°16.712 2°52.268 22.1198 4.699037 32.432333 7.17417
2006-07-26 07:12:57 51°16.714 2°52.261 22.1107 4.69967 32.438241 7.207879
2006-07-26 07:13:02 51°16.715 2°52.254 22.1044 4.698405 32.427444 7.17417
2006-07-26 07:13:07 51°16.716 2°52.247 22.1079 4.697983 32.425202 7.17417
2006-07-26 07:13:12 51°16.718 2°52.24 22.1016 4.699776 32.437529 7.207879
2006-07-26 07:13:17 51°16.72 2°52.233 22.0982 4.699143 32.435694 7.17417
2006-07-26 07:13:22 51°16.721 2°52.226 22.0998 4.699143 32.435694 7.17417
2006-07-26 07:13:27 51°16.723 2°52.218 22.1024 4.699354 32.441908 7.17417
2006-07-26 07:13:32 51°16.725 2°52.211 22.1029 4.696823 32.421837 7.14046
2006-07-26 07:13:37 51°16.727 2°52.204 22.1003 4.697983 32.433858 7.17417
2006-07-26 07:13:42 51°16.729 2°52.197 22.0946 4.697983 32.437423 7.17417
2006-07-26 07:13:47 51°16.731 2°52.19 22.0926 4.699143 32.449449 7.14046
2006-07-26 07:13:52 51°16.733 2°52.183 22.0891 4.699143 32.449449 7.14046
2006-07-26 07:13:57 51°16.735 2°52.177 22.0844 4.699565 32.454239 7.14046
2006-07-26 07:14:01 51°16.737 2°52.172 22.0822 4.698616 32.44894 7.106751
2006-07-26 07:14:07 51°16.739 2°52.164 22.089 4.699354 32.457197 7.14046
2006-07-26 07:14:12 51°16.741 2°52.158 22.0813 4.699565 32.457808 7.106751
2006-07-26 07:14:17 51°16.743 2°52.152 22.0779 4.700198 32.461681 7.106751
2006-07-26 07:14:22 51°16.746 2°52.147 22.0814 4.700198 32.461681 7.106751
2006-07-26 07:14:27 51°16.748 2°52.142 22.077 4.697245 32.442417 7.14046
2006-07-26 07:14:32 51°16.751 2°52.137 22.0785 4.698194 32.452816 7.106751
2006-07-26 07:14:37 51°16.753 2°52.132 22.0749 4.69714 32.448229 7.14046
2006-07-26 07:14:42 51°16.755 2°52.127 22.0661 4.698827 32.46179 7.073042
2006-07-26 07:14:47 51°16.758 2°52.122 22.0648 4.699882 32.47352 7.106751
2006-07-26 07:14:52 51°16.76 2°52.118 22.0648 4.699882 32.47352 7.106751
2006-07-26 07:14:57 51°16.763 2°52.114 22.0669 4.700198 32.475967 7.039332
2006-07-26 07:15:02 51°16.765 2°52.11 22.0693 4.697246 32.456696 7.073042
2006-07-26 07:15:07 51°16.768 2°52.106 22.0632 4.697562 32.458633 7.106751
2006-07-26 07:15:12 51°16.77 2°52.103 22.0714 4.700093 32.479746 7.073042
2006-07-26 07:15:17 51°16.773 2°52.1 22.0615 4.699882 32.478114 7.073042
2006-07-26 07:15:22 51°16.775 2°52.096 22.0645 4.699882 32.478114 7.073042
2006-07-26 07:15:25 51°16.777 2°52.095 22.0513 4.698827 32.473018 7.073042
2006-07-26 07:15:32 51°16.78 2°52.091 22.0519 4.699355 32.47863 7.039332
2006-07-26 07:15:37 51°16.783 2°52.089 22.0467 4.699671 32.484142 7.106751
2006-07-26 07:15:42 51°16.785 2°52.087 22.0493 4.698406 32.473328 7.039332
2006-07-26 07:15:47 51°16.788 2°52.085 22.0433 4.698089 32.47088 7.073042
2006-07-26 07:15:52 51°16.791 2°52.084 22.0527 4.698089 32.47088 7.073042
2006-07-26 07:15:57 51°16.793 2°52.083 22.0439 4.700304 32.48955 7.039332
2006-07-26 07:16:02 51°16.796 2°52.083 22.0436 4.700409 32.49241 7.039332
2006-07-26 07:16:07 51°16.798 2°52.082 22.0339 4.699144 32.487214 7.039332
2006-07-26 07:16:12 51°16.801 2°52.082 22.0309 4.698406 32.483033 7.005623
2006-07-26 07:16:17 51°16.803 2°52.083 22.0277 4.699566 32.494057 7.005623
2006-07-26 07:16:22 51°16.806 2°52.083 22.0318 4.699566 32.494057 7.005623
2006-07-26 07:16:26 51°16.808 2°52.084 22.0247 4.698933 32.491204 7.005623
2006-07-26 07:16:32 51°16.81 2°52.085 22.0247 4.699777 32.501315 7.039332
2006-07-26 07:16:37 51°16.812 2°52.086 22.0247 4.700304 32.504375 7.005623
2006-07-26 07:16:42 51°16.814 2°52.088 22.025 4.697984 32.486922 7.039332
2006-07-26 07:16:47 51°16.816 2°52.091 22.0227 4.700304 32.507955 7.005623
2006-07-26 07:16:52 51°16.818 2°52.093 22.0221 4.700304 32.507955 7.005623
2006-07-26 07:16:58 51°16.82 2°52.097 22.0184 4.700304 32.511025 7.005623
2006-07-26 07:17:02 51°16.822 2°52.099 22.0219 4.700304 32.516143 7.005623
2006-07-26 07:17:07 51°16.823 2°52.103 22.0133 4.69809 32.498989 7.005623
2006-07-26 07:17:12 51°16.825 2°52.107 22.0175 4.69693 32.491539 7.005623
2006-07-26 07:17:17 51°16.826 2°52.111 22.0165 4.696403 32.490524 7.039332
2006-07-26 07:17:22 51°16.827 2°52.115 22.0161 4.696403 32.490524 7.039332
2006-07-26 07:17:27 51°16.828 2°52.12 22.014 4.698828 32.507777 7.039332
2006-07-26 07:17:32 51°16.83 2°52.125 22.0162 4.697985 32.501754 7.039332
2006-07-26 07:17:37 51°16.831 2°52.13 22.0161 4.697246 32.499618 7.039332
2006-07-26 07:17:42 51°16.832 2°52.135 22.0183 4.696719 32.497068 7.005623
2006-07-26 07:17:46 51°16.832 2°52.14 22.0173 4.699145 32.517395 6.971913
2006-07-26 07:17:52 51°16.833 2°52.146 22.0147 4.699145 32.517395 6.971913
2006-07-26 07:17:57 51°16.834 2°52.152 22.0129 4.699145 32.517395 6.971913
2006-07-26 07:18:02 51°16.835 2°52.158 22.0125 4.699356 32.51903 6.971913
2006-07-26 07:18:07 51°16.836 2°52.164 22.0115 4.695876 32.493091 7.005623
2006-07-26 07:18:12 51°16.836 2°52.17 22.0077 4.696508 32.498505 7.005623
2006-07-26 07:18:17 51°16.837 2°52.176 22.0082 4.697352 32.504529 7.005623
2006-07-26 07:18:22 51°16.837 2°52.182 22.0103 4.697352 32.504529 7.005623
2006-07-26 07:18:27 51°16.838 2°52.188 22.008 4.69577 32.493809 6.971913
2006-07-26 07:18:32 51°16.838 2°52.194 22.0107 4.699039 32.519139 6.971913
2006-07-26 07:18:37 51°16.839 2°52.2 22.0094 4.698512 32.51659 6.971913
2006-07-26 07:18:42 51°16.839 2°52.207 22.0059 4.696825 32.503003 6.971913
2006-07-26 07:18:46 51°16.839 2°52.212 22.0078 4.696403 32.500247 6.971913
2006-07-26 07:18:52 51°16.839 2°52.219 22.0108 4.696403 32.500247 6.971913
2006-07-26 07:18:57 51°16.839 2°52.225 22.0081 4.695876 32.500768 6.971913
2006-07-26 07:19:02 51°16.839 2°52.231 22.0075 4.695454 32.495964 6.971913
2006-07-26 07:19:07 51°16.839 2°52.237 22.0091 4.695981 32.499538 7.005623
2006-07-26 07:19:12 51°16.839 2°52.243 22.0073 4.695559 32.496269 6.971913
2006-07-26 07:19:17 51°16.839 2°52.25 22.0072 4.694927 32.492902 7.005623
2006-07-26 07:19:22 51°16.839 2°52.256 22.0104 4.694927 32.492902 7.005623
2006-07-26 07:19:27 51°16.839 2°52.262 22.0125 4.696192 32.50066 7.005623
2006-07-26 07:19:32 51°16.838 2°52.268 22.0117 4.696087 32.502403 6.971913
2006-07-26 07:19:37 51°16.838 2°52.274 22.0083 4.696087 32.503939 6.971913
2006-07-26 07:19:42 51°16.838 2°52.28 22.014 4.698723 32.523859 7.005623
2006-07-26 07:19:47 51°16.837 2°52.286 22.0078 4.698301 32.51854 7.005623
2006-07-26 07:19:52 51°16.837 2°52.292 22.0082 4.698301 32.51854 7.005623
2006-07-26 07:19:57 51°16.837 2°52.297 22.012 4.695559 32.499341 6.971913
2006-07-26 07:20:02 51°16.836 2°52.303 22.0133 4.696192 32.50578 7.005623
2006-07-26 07:20:07 51°16.836 2°52.309 22.0092 4.694294 32.488511 7.005623
2006-07-26 07:20:12 51°16.835 2°52.315 22.0138 4.695559 32.497805 6.971913
2006-07-26 07:20:17 51°16.834 2°52.321 22.0103 4.694927 32.494437 7.039332
2006-07-26 07:20:22 51°16.834 2°52.328 22.0126 4.694927 32.494437 7.039332
2006-07-26 07:20:27 51°16.833 2°52.334 22.0115 4.698196 32.518748 7.005623
2006-07-26 07:20:32 51°16.833 2°52.339 22.0151 4.698723 32.523346 7.005623
2006-07-26 07:20:37 51°16.832 2°52.345 22.0147 4.695981 32.501586 7.039332
2006-07-26 07:20:42 51°16.831 2°52.351 22.0156 4.694716 32.491268 7.005623
2006-07-26 07:20:47 51°16.83 2°52.357 22.0144 4.69577 32.499439 6.971913
2006-07-26 07:20:52 51°16.829 2°52.363 22.0141 4.69577 32.499439 6.971913
2006-07-26 07:20:57 51°16.828 2°52.368 22.0138 4.696192 32.502196 7.005623
2006-07-26 07:21:02 51°16.827 2°52.374 22.0151 4.695665 32.49811 7.039332
2006-07-26 07:21:07 51°16.825 2°52.38 22.0166 4.693978 32.484012 7.005623
2006-07-26 07:21:12 51°16.824 2°52.386 22.0185 4.697458 32.510466 7.005623
2006-07-26 07:21:18 51°16.822 2°52.393 22.0195 4.697985 32.514552 7.039332
2006-07-26 07:21:22 51°16.82 2°52.397 22.0184 4.697985 32.514552 7.039332
2006-07-26 07:21:27 51°16.818 2°52.403 22.0197 4.697774 32.511894 7.039332
2006-07-26 07:21:32 51°16.817 2°52.409 22.0225 4.697141 32.506479 7.005623
2006-07-26 07:21:37 51°16.814 2°52.414 22.0224 4.697141 32.508015 7.005623
2006-07-26 07:21:42 51°16.812 2°52.419 22.0248 4.696825 32.504539 7.005623
2006-07-26 07:21:46 51°16.81 2°52.423 22.0248 4.697352 32.506065 7.005623
2006-07-26 07:21:52 51°16.806 2°52.429 22.0292 4.697352 32.506065 7.005623
2006-07-26 07:21:57 51°16.803 2°52.434 22.0275 4.697247 32.504736 7.005623
2006-07-26 07:22:02 51°16.8 2°52.439 22.0323 4.697036 32.503102 7.073042
2006-07-26 07:22:07 51°16.796 2°52.443 22.0304 4.697141 32.503919 7.039332
2006-07-26 07:22:12 51°16.792 2°52.448 22.0302 4.696825 32.49942 7.005623
2006-07-26 07:22:17 51°16.788 2°52.452 22.0312 4.696825 32.498909 7.073042
2006-07-26 07:22:22 51°16.784 2°52.455 22.0315 4.696825 32.498909 7.073042
2006-07-26 07:22:27 51°16.78 2°52.459 22.0319 4.69809 32.505642 7.039332
2006-07-26 07:22:32 51°16.775 2°52.463 22.032 4.696719 32.495021 7.039332
2006-07-26 07:22:37 51°16.771 2°52.466 22.0367 4.696192 32.49196 7.039332
2006-07-26 07:22:42 51°16.766 2°52.469 22.0355 4.695981 32.487768 7.039332
2006-07-26 07:22:47 51°16.761 2°52.472 22.039 4.696825 32.49328 7.039332
2006-07-26 07:22:52 51°16.756 2°52.475 22.0397 4.695559 32.482967 7.073042
2006-07-26 07:22:56 51°16.752 2°52.476 22.0433 4.695559 32.482967 7.073042
2006-07-26 07:23:02 51°16.746 2°52.479 22.0436 4.696825 32.494303 7.039332
2006-07-26 07:23:07 51°16.741 2°52.48 22.0424 4.695454 32.484707 7.073042
2006-07-26 07:23:12 51°16.736 2°52.482 22.0419 4.695559 32.48399 7.106751
2006-07-26 07:23:17 51°16.731 2°52.483 22.0438 4.696825 32.491234 7.073042
2006-07-26 07:23:22 51°16.725 2°52.484 22.043 4.696825 32.491234 7.073042
2006-07-26 07:23:26 51°16.721 2°52.484 22.0461 4.696614 32.487555 7.073042
2006-07-26 07:23:32 51°16.714 2°52.484 22.0482 4.696297 32.484593 7.106751
2006-07-26 07:23:37 51°16.708 2°52.484 22.0525 4.695664 32.479182 7.106751
2006-07-26 07:23:42 51°16.703 2°52.484 22.0503 4.696297 32.482037 7.106751
2006-07-26 07:23:47 51°16.697 2°52.483 22.0504 4.695981 32.479076 7.073042
2006-07-26 07:23:52 51°16.692 2°52.482 22.0526 4.695981 32.479076 7.073042
2006-07-26 07:23:57 51°16.686 2°52.481 22.0516 4.69577 32.475398 7.106751
2006-07-26 07:24:02 51°16.68 2°52.479 22.0536 4.695032 32.471726 7.073042
2006-07-26 07:24:07 51°16.674 2°52.478 22.0557 4.695243 32.471315 7.106751
2006-07-26 07:24:12 51°16.668 2°52.475 22.056 4.695453 32.471926 7.073042
2006-07-26 07:24:17 51°16.663 2°52.473 22.0591 4.69577 32.472842 7.106751
2006-07-26 07:24:22 51°16.657 2°52.47 22.0569 4.696508 32.478047 7.073042
2006-07-26 07:24:27 51°16.651 2°52.467 22.0576 4.696508 32.478047 7.073042
2006-07-26 07:24:32 51°16.646 2°52.464 22.0609 4.695664 32.469982 7.073042
2006-07-26 07:24:37 51°16.64 2°52.461 22.0587 4.695453 32.468349 7.106751
2006-07-26 07:24:42 51°16.635 2°52.457 22.0583 4.69577 32.469777 7.106751
2006-07-26 07:24:47 51°16.629 2°52.452 22.0655 4.69577 32.468244 7.14046
2006-07-26 07:24:52 51°16.624 2°52.448 22.0612 4.69577 32.468244 7.14046
2006-07-26 07:24:57 51°16.619 2°52.443 22.0602 4.694715 32.45957 7.106751
2006-07-26 07:25:02 51°16.614 2°52.438 22.0633 4.695031 32.459976 7.14046
2006-07-26 07:25:07 51°16.609 2°52.433 22.0636 4.695137 32.461303 7.14046
2006-07-26 07:25:11 51°16.605 2°52.428 22.0648 4.694926 32.45916 7.106751
2006-07-26 07:25:17 51°16.599 2°52.421 22.0659 4.694821 32.457322 7.17417
2006-07-26 07:25:22 51°16.595 2°52.415 22.064 4.694821 32.457322 7.17417
2006-07-26 07:25:27 51°16.59 2°52.409 22.0678 4.694504 32.454873 7.106751
2006-07-26 07:25:32 51°16.586 2°52.402 22.0651 4.694715 32.455485 7.14046
2006-07-26 07:25:37 51°16.582 2°52.396 22.0707 4.695031 32.457933 7.17417
2006-07-26 07:25:42 51°16.578 2°52.389 22.0671 4.694715 32.454974 7.14046
2006-07-26 07:25:47 51°16.574 2°52.382 22.0686 4.694504 32.452321 7.17417
2006-07-26 07:25:52 51°16.571 2°52.374 22.0674 4.694504 32.452321 7.17417
2006-07-26 07:25:57 51°16.567 2°52.367 22.0681 4.694926 32.454565 7.106751
2006-07-26 07:26:02 51°16.564 2°52.359 22.0682 4.694715 32.451401 7.14046
2006-07-26 07:26:07 51°16.562 2°52.351 22.0697 4.695348 32.456808 7.14046
2006-07-26 07:26:12 51°16.559 2°52.343 22.0698 4.69461 32.450074 7.14046
2006-07-26 07:26:17 51°16.557 2°52.335 22.0726 4.694926 32.452523 7.106751
2006-07-26 07:26:22 51°16.555 2°52.326 22.0709 4.694504 32.450279 7.14046
2006-07-26 07:26:27 51°16.554 2°52.318 22.0706 4.694504 32.450279 7.14046
2006-07-26 07:26:32 51°16.553 2°52.31 22.0687 4.695031 32.452828 7.14046
2006-07-26 07:26:37 51°16.552 2°52.301 22.0685 4.694504 32.446707 7.14046
2006-07-26 07:26:42 51°16.552 2°52.293 22.0728 4.694715 32.448849 7.17417
2006-07-26 07:26:48 51°16.551 2°52.283 22.0734 4.694609 32.447523 7.106751
2006-07-26 07:26:52 51°16.551 2°52.277 22.0719 4.694609 32.447523 7.106751
2006-07-26 07:26:57 51°16.551 2°52.269 22.0727 4.694715 32.448339 7.17417
2006-07-26 07:27:02 51°16.552 2°52.261 22.0746 4.69482 32.448134 7.17417
2006-07-26 07:27:07 51°16.553 2°52.253 22.0717 4.694715 32.447318 7.14046
2006-07-26 07:27:12 51°16.554 2°52.246 22.0695 4.694926 32.44895 7.14046
2006-07-26 07:27:17 51°16.555 2°52.239 22.0711 4.694715 32.447829 7.17417
2006-07-26 07:27:22 51°16.557 2°52.232 22.0726 4.694715 32.447829 7.17417
2006-07-26 07:27:27 51°16.558 2°52.226 22.0712 4.69482 32.447624 7.14046
2006-07-26 07:27:32 51°16.56 2°52.22 22.069 4.695031 32.447725 7.14046
2006-07-26 07:27:37 51°16.562 2°52.214 22.0685 4.69482 32.445583 7.17417
2006-07-26 07:27:41 51°16.564 2°52.209 22.0655 4.695031 32.448236 7.17417
2006-07-26 07:27:47 51°16.567 2°52.203 22.0633 4.694926 32.446909 7.207879
2006-07-26 07:27:53 51°16.57 2°52.198 22.0618 4.694926 32.446909 7.207879
2006-07-26 07:27:57 51°16.572 2°52.194 22.0613 4.694926 32.44793 7.14046
2006-07-26 07:28:02 51°16.575 2°52.191 22.0623 4.695031 32.447725 7.17417
2006-07-26 07:28:06 51°16.577 2°52.188 22.06 4.694715 32.446298 7.14046
2006-07-26 07:28:12 51°16.58 2°52.184 22.0577 4.695348 32.450173 7.207879
2006-07-26 07:28:17 51°16.583 2°52.182 22.0542 4.695348 32.454766 7.14046
2006-07-26 07:28:21 51°16.586 2°52.18 22.054 4.695348 32.453746 7.14046
2006-07-26 07:28:27 51°16.589 2°52.178 22.0492 4.695348 32.453746 7.14046
2006-07-26 07:28:32 51°16.592 2°52.176 22.0498 4.695137 32.454665 7.17417
2006-07-26 07:28:37 51°16.595 2°52.175 22.0493 4.694715 32.451401 7.106751
2006-07-26 07:28:42 51°16.599 2°52.175 22.0486 4.695137 32.456707 7.17417
2006-07-26 07:28:47 51°16.602 2°52.174 22.0482 4.695242 32.458034 7.17417
2006-07-26 07:28:52 51°16.605 2°52.174 22.0437 4.695242 32.458034 7.17417
2006-07-26 07:28:57 51°16.609 2°52.174 22.0457 4.695875 32.463953 7.14046
2006-07-26 07:29:02 51°16.612 2°52.174 22.0474 4.695559 32.463547 7.14046
2006-07-26 07:29:07 51°16.616 2°52.174 22.0446 4.695031 32.460487 7.106751
2006-07-26 07:29:12 51°16.619 2°52.175 22.0446 4.695137 32.463857 7.14046
2006-07-26 07:29:18 51°16.623 2°52.176 22.0471 4.695453 32.466817 7.14046
2006-07-26 07:29:22 51°16.626 2°52.177 22.0459 4.695453 32.466817 7.14046
2006-07-26 07:29:26 51°16.629 2°52.178 22.0439 4.696192 32.473043 7.14046
2006-07-26 07:29:32 51°16.634 2°52.179 22.0445 4.695664 32.471515 7.14046
2006-07-26 07:29:37 51°16.637 2°52.181 22.045 4.696086 32.47427 7.106751
2006-07-26 07:29:42 51°16.641 2°52.182 22.0459 4.69577 32.471821 7.14046
2006-07-26 07:29:47 51°16.644 2°52.184 22.0444 4.695664 32.473048 7.14046
2006-07-26 07:29:52 51°16.648 2°52.186 22.045 4.69577 32.473354 7.14046
2006-07-26 07:29:57 51°16.652 2°52.188 22.0463 4.69577 32.473354 7.14046
2006-07-26 07:30:02 51°16.655 2°52.191 22.0449 4.696192 32.475597 7.106751
2006-07-26 07:30:07 51°16.659 2°52.193 22.0446 4.695875 32.47417 7.106751
2006-07-26 07:30:12 51°16.662 2°52.196 22.0437 4.695032 32.46866 7.14046
2006-07-26 07:30:17 51°16.666 2°52.199 22.045 4.695875 32.47417 7.14046
2006-07-26 07:30:22 51°16.669 2°52.201 22.0452 4.695875 32.47417 7.14046
2006-07-26 07:30:27 51°16.672 2°52.204 22.0446 4.696297 32.478969 7.106751
2006-07-26 07:30:32 51°16.676 2°52.208 22.0436 4.696297 32.477947 7.106751
2006-07-26 07:30:37 51°16.678 2°52.211 22.0439 4.696086 32.477336 7.073042
2006-07-26 07:30:42 51°16.682 2°52.215 22.0429 4.696613 32.479886 7.106751
2006-07-26 07:30:47 51°16.685 2°52.218 22.0485 4.695664 32.472537 7.106751
2006-07-26 07:30:52 51°16.687 2°52.222 22.0412 4.695664 32.472537 7.106751
2006-07-26 07:30:57 51°16.69 2°52.226 22.0436 4.696508 32.480091 7.073042
2006-07-26 07:31:01 51°16.692 2°52.229 22.0453 4.696613 32.479886 7.073042
2006-07-26 07:31:07 51°16.695 2°52.234 22.0482 4.696192 32.477131 7.073042
2006-07-26 07:31:12 51°16.698 2°52.239 22.0455 4.696086 32.478359 7.073042
2006-07-26 07:31:17 51°16.7 2°52.243 22.0427 4.695032 32.470193 7.106751
2006-07-26 07:31:22 51°16.702 2°52.248 22.0446 4.695875 32.476725 7.073042
2006-07-26 07:31:28 51°16.704 2°52.254 22.0434 4.695875 32.476725 7.073042
2006-07-26 07:31:32 51°16.705 2°52.258 22.0443 4.696297 32.479481 7.106751
2006-07-26 07:31:37 51°16.707 2°52.264 22.0447 4.69577 32.477953 7.073042
2006-07-26 07:31:42 51°16.708 2°52.269 22.046 4.696403 32.479786 7.14046
2006-07-26 07:31:47 51°16.709 2°52.275 22.0445 4.695559 32.473254 7.073042
2006-07-26 07:31:52 51°16.71 2°52.281 22.0436 4.695559 32.473254 7.073042
2006-07-26 07:31:57 51°16.71 2°52.287 22.0436 4.696403 32.479275 7.106751
2006-07-26 07:32:02 51°16.711 2°52.293 22.0438 4.696508 32.482136 7.106751
2006-07-26 07:32:07 51°16.711 2°52.299 22.0442 4.695664 32.473559 7.106751
2006-07-26 07:32:12 51°16.711 2°52.305 22.0453 4.696192 32.477131 7.14046
2006-07-26 07:32:17 51°16.71 2°52.31 22.0459 4.695032 32.469171 7.106751
2006-07-26 07:32:22 51°16.71 2°52.315 22.0473 4.695032 32.469171 7.106751
2006-07-26 07:32:27 51°16.71 2°52.32 22.0499 4.695664 32.473559 7.14046
2006-07-26 07:32:32 51°16.709 2°52.325 22.0497 4.695981 32.47652 7.14046
2006-07-26 07:32:37 51°16.708 2°52.329 22.0485 4.695875 32.475703 7.073042
2006-07-26 07:32:42 51°16.707 2°52.333 22.0465 4.695875 32.477237 7.14046
2006-07-26 07:32:46 51°16.707 2°52.337 22.0474 4.695875 32.475703 7.14046
2006-07-26 07:32:52 51°16.705 2°52.341 22.0486 4.695875 32.475703 7.14046
2006-07-26 07:32:57 51°16.704 2°52.345 22.0455 4.694926 32.468865 7.073042
2006-07-26 07:33:02 51°16.703 2°52.348 22.047 4.695348 32.471109 7.106751
2006-07-26 07:33:07 51°16.701 2°52.352 22.0485 4.694504 32.463045 7.14046
2006-07-26 07:33:12 51°16.7 2°52.355 22.0504 4.695348 32.469066 7.14046
2006-07-26 07:33:17 51°16.698 2°52.358 22.049 4.695242 32.467227 7.14046
2006-07-26 07:33:22 51°16.697 2°52.361 22.0507 4.69577 32.47131 7.14046
2006-07-26 07:33:27 51°16.695 2°52.364 22.0493 4.69577 32.47131 7.14046
2006-07-26 07:33:32 51°16.693 2°52.367 22.0492 4.695453 32.470393 7.14046
2006-07-26 07:33:36 51°16.692 2°52.368 22.0534 4.695243 32.46876 7.106751
2006-07-26 07:33:42 51°16.69 2°52.371 22.0562 4.695559 32.47172 7.17417
2006-07-26 07:33:46 51°16.688 2°52.373 22.0563 4.695348 32.468555 7.14046
2006-07-26 07:33:51 51°16.686 2°52.375 22.0581 4.695348 32.468555 7.14046
2006-07-26 07:33:57 51°16.684 2°52.378 22.0564 4.695032 32.467127 7.106751
2006-07-26 07:34:02 51°16.682 2°52.38 22.0561 4.694399 32.460696 7.14046
2006-07-26 07:34:07 51°16.681 2°52.382 22.058 4.694926 32.464778 7.106751
2006-07-26 07:34:12 51°16.679 2°52.383 22.0575 4.695032 32.465594 7.106751
2006-07-26 07:34:17 51°16.677 2°52.385 22.0591 4.694926 32.462224 7.106751
2006-07-26 07:34:22 51°16.675 2°52.386 22.0575 4.694926 32.462224 7.106751
2006-07-26 07:34:27 51°16.674 2°52.388 22.0569 4.695137 32.463857 7.106751
2006-07-26 07:34:32 51°16.672 2°52.389 22.0557 4.695242 32.464162 7.106751
2006-07-26 07:34:38 51°16.67 2°52.391 22.0558 4.69577 32.466712 7.106751
2006-07-26 07:34:42 51°16.668 2°52.392 22.0567 4.695559 32.464568 7.073042
2006-07-26 07:34:47 51°16.666 2°52.393 22.0564 4.694926 32.460692 7.14046
2006-07-26 07:34:52 51°16.664 2°52.395 22.0587 4.694926 32.460692 7.14046
2006-07-26 07:34:57 51°16.662 2°52.395 22.0622 4.695559 32.463036 7.14046
2006-07-26 07:35:02 51°16.661 2°52.397 22.0591 4.695981 32.465791 7.106751
2006-07-26 07:35:07 51°16.659 2°52.398 22.0615 4.695664 32.464363 7.14046
2006-07-26 07:35:12 51°16.657 2°52.398 22.0616 4.695981 32.467323 7.106751
2006-07-26 07:35:17 51°16.655 2°52.4 22.0584 4.695137 32.460792 7.14046
2006-07-26 07:35:22 51°16.653 2°52.401 22.0617 4.694821 32.459365 7.106751
2006-07-26 07:35:27 51°16.651 2°52.403 22.0631 4.694821 32.459365 7.106751
2006-07-26 07:35:32 51°16.649 2°52.405 22.0618 4.694715 32.459059 7.14046
2006-07-26 07:35:37 51°16.647 2°52.407 22.0642 4.695559 32.462525 7.106751
2006-07-26 07:35:42 51°16.645 2°52.409 22.0653 4.695348 32.459872 7.106751
2006-07-26 07:35:47 51°16.643 2°52.411 22.0648 4.695137 32.45926 7.106751
2006-07-26 07:35:52 51°16.641 2°52.414 22.0646 4.695137 32.45926 7.106751
2006-07-26 07:35:57 51°16.638 2°52.417 22.0634 4.69577 32.463137 7.106751
2006-07-26 07:36:02 51°16.636 2°52.421 22.0634 4.695242 32.460587 7.14046
2006-07-26 07:36:07 51°16.634 2°52.424 22.0652 4.695664 32.463342 7.073042
2006-07-26 07:36:12 51°16.632 2°52.428 22.0677 4.695242 32.458034 7.106751
2006-07-26 07:36:17 51°16.629 2°52.432 22.0691 4.695242 32.457524 7.106751
2006-07-26 07:36:22 51°16.627 2°52.437 22.0715 4.695242 32.457524 7.106751
2006-07-26 07:36:27 51°16.624 2°52.441 22.0703 4.695559 32.458951 7.073042
2006-07-26 07:36:32 51°16.622 2°52.446 22.0708 4.695559 32.458441 7.106751
2006-07-26 07:36:37 51°16.619 2°52.451 22.0699 4.695875 32.460889 7.073042
2006-07-26 07:36:42 51°16.617 2°52.456 22.072 4.695031 32.453849 7.106751
2006-07-26 07:36:47 51°16.614 2°52.461 22.0707 4.695242 32.455992 7.106751
2006-07-26 07:36:52 51°16.611 2°52.467 22.0712 4.695348 32.455277 7.106751
2006-07-26 07:36:57 51°16.608 2°52.472 22.071 4.695348 32.455277 7.106751
2006-07-26 07:37:02 51°16.605 2°52.478 22.0732 4.695664 32.456704 7.073042
2006-07-26 07:37:07 51°16.602 2°52.483 22.0739 4.695559 32.455378 7.073042
2006-07-26 07:37:12 51°16.599 2°52.489 22.0756 4.695453 32.454562 7.106751
2006-07-26 07:37:17 51°16.596 2°52.495 22.0757 4.694926 32.450992 7.073042
2006-07-26 07:37:22 51°16.593 2°52.501 22.0789 4.694926 32.450992 7.073042
2006-07-26 07:37:27 51°16.59 2°52.506 22.0832 4.695453 32.453031 7.14046
2006-07-26 07:37:32 51°16.586 2°52.511 22.0826 4.69598 32.45609 7.106751
2006-07-26 07:37:37 51°16.582 2°52.516 22.0833 4.695242 32.450378 7.073042
2006-07-26 07:37:42 51°16.579 2°52.521 22.0833 4.695242 32.449868 7.14046
2006-07-26 07:37:47 51°16.576 2°52.526 22.0828 4.695137 32.449052 7.14046
2006-07-26 07:37:51 51°16.573 2°52.529 22.0861 4.695137 32.449052 7.14046
2006-07-26 07:37:56 51°16.571 2°52.534 22.0862 4.695031 32.447215 7.106751
2006-07-26 07:38:02 51°16.567 2°52.539 22.0877 4.694926 32.445889 7.106751
2006-07-26 07:38:07 51°16.564 2°52.542 22.0865 4.695453 32.446908 7.14046
2006-07-26 07:38:11 51°16.562 2°52.545 22.0872 4.69482 32.440992 7.14046
2006-07-26 07:38:17 51°16.559 2°52.549 22.0879 4.695242 32.442725 7.14046
2006-07-26 07:38:22 51°16.556 2°52.553 22.088 4.695242 32.442725 7.14046
2006-07-26 07:38:27 51°16.553 2°52.556 22.0918 4.695137 32.44242 7.14046
2006-07-26 07:38:32 51°16.55 2°52.559 22.0899 4.695137 32.44191 7.14046
2006-07-26 07:38:37 51°16.547 2°52.562 22.0904 4.693977 32.431916 7.17417
2006-07-26 07:38:42 51°16.544 2°52.564 22.0918 4.679635 32.319987 7.17417
2006-07-26 07:38:47 51°16.541 2°52.566 22.0918 4.695031 32.438034 7.17417
2006-07-26 07:38:52 51°16.538 2°52.569 22.0927 4.695031 32.438034 7.17417
2006-07-26 07:38:57 51°16.535 2°52.571 22.0915 4.69482 32.436403 7.17417
2006-07-26 07:39:02 51°16.533 2°52.573 22.0919 4.694293 32.432324 7.17417
2006-07-26 07:39:07 51°16.53 2°52.575 22.0923 4.694715 32.434567 7.207879
2006-07-26 07:39:12 51°16.527 2°52.577 22.0959 4.694504 32.432936 7.17417
2006-07-26 07:39:16 51°16.525 2°52.579 22.0996 4.694504 32.431407 7.17417
2006-07-26 07:39:22 51°16.522 2°52.581 22.0986 4.694504 32.431407 7.17417
2006-07-26 07:39:27 51°16.519 2°52.583 22.1009 4.69482 32.432834 7.207879
2006-07-26 07:39:32 51°16.517 2°52.584 22.1014 4.694187 32.427431 7.207879
2006-07-26 07:39:37 51°16.515 2°52.586 22.1007 4.695031 32.434465 7.241589
2006-07-26 07:39:42 51°16.512 2°52.587 22.0994 4.694398 32.428552 7.17417
2006-07-26 07:39:47 51°16.51 2°52.589 22.1021 4.694293 32.427227 7.17417
2006-07-26 07:39:52 51°16.507 2°52.59 22.1018 4.694293 32.427227 7.17417
2006-07-26 07:39:57 51°16.505 2°52.591 22.1033 4.694293 32.425698 7.17417
2006-07-26 07:40:02 51°16.502 2°52.592 22.1037 4.694715 32.428451 7.207879
2006-07-26 07:40:07 51°16.5 2°52.593 22.1039 4.694398 32.425495 7.207879
2006-07-26 07:40:12 51°16.498 2°52.595 22.1063 4.695031 32.428859 7.207879
2006-07-26 07:40:17 51°16.496 2°52.596 22.1067 4.693765 32.421621 7.207879
2006-07-26 07:40:22 51°16.494 2°52.597 22.106 4.694609 32.425088 7.207879
2006-07-26 07:40:27 51°16.491 2°52.599 22.109 4.694609 32.425088 7.207879
2006-07-26 07:40:32 51°16.488 2°52.601 22.1079 4.694082 32.420501 7.17417
2006-07-26 07:40:37 51°16.485 2°52.604 22.1076 4.694398 32.421928 7.207879
2006-07-26 07:40:42 51°16.481 2°52.608 22.1106 4.693554 32.415914 7.207879
2006-07-26 07:40:47 51°16.477 2°52.611 22.1147 4.693871 32.417851 7.207879
2006-07-26 07:40:52 51°16.473 2°52.615 22.1139 4.693871 32.417851 7.207879
2006-07-26 07:40:57 51°16.469 2°52.619 22.1163 4.694503 32.421725 7.207879
2006-07-26 07:41:02 51°16.464 2°52.623 22.117 4.694609 32.421522 7.17417
2006-07-26 07:41:07 51°16.458 2°52.627 22.1208 4.694082 32.417954 7.17417
2006-07-26 07:41:12 51°16.452 2°52.63 22.1225 4.694187 32.417242 7.17417
2006-07-26 07:41:17 51°16.445 2°52.632 22.1231 4.693976 32.415102 7.17417
2006-07-26 07:41:22 51°16.438 2°52.634 22.1246 4.693976 32.415102 7.17417
2006-07-26 07:41:27 51°16.431 2°52.636 22.1281 4.694292 32.414492 7.17417
2006-07-26 07:41:32 51°16.424 2°52.636 22.1336 4.693871 32.412759 7.14046
2006-07-26 07:41:38 51°16.415 2°52.636 22.1321 4.693871 32.410213 7.17417
2006-07-26 07:41:42 51°16.409 2°52.635 22.1342 4.694187 32.409604 7.17417
2006-07-26 07:41:47 51°16.402 2°52.633 22.135 4.693976 32.408483 7.207879
2006-07-26 07:41:52 51°16.395 2°52.631 22.1378 4.693976 32.408483 7.207879
2006-07-26 07:41:56 51°16.389 2°52.629 22.1405 4.694292 32.408384 7.207879
2006-07-26 07:42:02 51°16.38 2°52.626 22.1428 4.694081 32.405227 7.207879
2006-07-26 07:42:07 51°16.373 2°52.622 22.145 4.694187 32.405024 7.207879
2006-07-26 07:42:12 51°16.367 2°52.618 22.1438 4.693976 32.399833 7.207879
2006-07-26 07:42:17 51°16.36 2°52.613 22.1463 4.693765 32.397185 7.275298
2006-07-26 07:42:22 51°16.353 2°52.608 22.1468 4.693765 32.397185 7.275298
2006-07-26 07:42:27 51°16.347 2°52.603 22.1479 4.693238 32.39006 7.241589
2006-07-26 07:42:32 51°16.34 2°52.598 22.1475 4.694081 32.395561 7.241589
2006-07-26 07:42:37 51°16.334 2°52.592 22.15 4.693027 32.386397 7.241589
2006-07-26 07:42:42 51°16.328 2°52.586 22.1521 4.693765 32.38905 7.207879
2006-07-26 07:42:47 51°16.321 2°52.579 22.1551 4.693659 32.38671 7.275298
2006-07-26 07:42:52 51°16.315 2°52.573 22.1541 4.693659 32.38671 7.275298
2006-07-26 07:42:57 51°16.309 2°52.566 22.1577 4.69387 32.387323 7.241589
2006-07-26 07:43:02 51°16.303 2°52.559 22.158 4.693132 32.38162 7.241589
2006-07-26 07:43:08 51°16.296 2°52.55 22.1585 4.693237 32.381927 7.241589
2006-07-26 07:43:12 51°16.291 2°52.545 22.1617 4.693659 32.383153 7.207879
2006-07-26 07:43:17 51°16.286 2°52.537 22.1599 4.693237 32.379386 7.241589
2006-07-26 07:43:22 51°16.28 2°52.53 22.1625 4.693237 32.379386 7.241589
2006-07-26 07:43:27 51°16.275 2°52.523 22.1659 4.693554 32.380306 7.241589
2006-07-26 07:43:32 51°16.269 2°52.515 22.1669 4.693976 32.382547 7.241589
2006-07-26 07:43:36 51°16.265 2°52.509 22.168 4.693132 32.373492 7.207879
2006-07-26 07:43:42 51°16.259 2°52.501 22.1693 4.693343 32.375121 7.207879
2006-07-26 07:43:47 51°16.254 2°52.493 22.1725 4.69387 32.377669 7.207879
2006-07-26 07:43:52 51°16.249 2°52.486 22.1761 4.69387 32.377669 7.207879
2006-07-26 07:43:57 51°16.244 2°52.479 22.1805 4.694186 32.378588 7.207879
2006-07-26 07:44:02 51°16.239 2°52.472 22.1819 4.693764 32.374315 7.241589
2006-07-26 07:44:07 51°16.235 2°52.465 22.186 4.693659 32.374009 7.207879
2006-07-26 07:44:12 51°16.23 2°52.459 22.1876 4.69387 32.373098 7.241589
2006-07-26 07:44:18 51°16.225 2°52.451 22.1892 4.693448 32.367303 7.241589
2006-07-26 07:44:22 51°16.221 2°52.445 22.1937 4.69271 32.361604 7.241589
2006-07-26 07:44:26 51°16.218 2°52.44 22.1958 4.69271 32.361604 7.241589
2006-07-26 07:44:32 51°16.213 2°52.432 22.1981 4.693026 32.361508 7.275298
2006-07-26 07:44:37 51°16.209 2°52.426 22.2015 4.693132 32.359785 7.241589
2006-07-26 07:44:42 51°16.205 2°52.419 22.2044 4.692815 32.353792 7.275298
2006-07-26 07:44:47 51°16.201 2°52.413 22.207 4.693237 32.355526 7.275298
2006-07-26 07:44:52 51°16.197 2°52.407 22.2097 4.693237 32.355526 7.275298
2006-07-26 07:44:57 51°16.193 2°52.401 22.2125 4.693448 32.354111 7.275298
2006-07-26 07:45:02 51°16.189 2°52.395 22.2179 4.69271 32.346893 7.241589
2006-07-26 07:45:06 51°16.186 2°52.39 22.2201 4.692604 32.344051 7.241589
2006-07-26 07:45:12 51°16.182 2°52.382 22.2206 4.692815 32.344158 7.309007
2006-07-26 07:45:17 51°16.178 2°52.377 22.224 4.69292 32.342437 7.275298
2006-07-26 07:45:22 51°16.174 2°52.371 22.2276 4.69292 32.342437 7.275298
2006-07-26 07:45:28 51°16.17 2°52.364 22.2286 4.693026 32.340717 7.275298
2006-07-26 07:45:32 51°16.167 2°52.359 22.2312 4.69292 32.336863 7.275298
2006-07-26 07:45:37 51°16.163 2°52.354 22.2343 4.693447 32.33789 7.275298
2006-07-26 07:45:42 51°16.159 2°52.348 22.2383 4.69292 32.331291 7.275298
2006-07-26 07:45:47 51°16.156 2°52.343 22.2401 4.69292 32.329265 7.275298
2006-07-26 07:45:52 51°16.152 2°52.338 22.2436 4.693447 32.329281 7.241589
2006-07-26 07:45:56 51°16.149 2°52.333 22.2449 4.693447 32.329281 7.241589
2006-07-26 07:46:02 51°16.145 2°52.327 22.2467 4.693025 32.325016 7.309007
2006-07-26 07:46:07 51°16.141 2°52.322 22.2488 4.692709 32.31954 7.275298
2006-07-26 07:46:12 51°16.138 2°52.316 22.2511 4.693131 32.321274 7.275298
2006-07-26 07:46:17 51°16.134 2°52.311 22.2552 4.693236 32.319557 7.241589
2006-07-26 07:46:22 51°16.131 2°52.306 22.2577 4.693236 32.319557 7.241589
2006-07-26 07:46:27 51°16.127 2°52.301 22.2581 4.692498 32.312348 7.275298
2006-07-26 07:46:32 51°16.124 2°52.296 22.2602 4.692709 32.311951 7.275298
2006-07-26 07:46:37 51°16.12 2°52.291 22.2625 4.692287 32.306171 7.275298
2006-07-26 07:46:42 51°16.117 2°52.286 22.2658 4.693025 32.308826 7.309007
2006-07-26 07:46:47 51°16.113 2°52.281 22.267 4.693552 32.309856 7.275298
2006-07-26 07:46:52 51°16.11 2°52.276 22.2686 4.693552 32.309856 7.275298
2006-07-26 07:46:57 51°16.107 2°52.271 22.2706 4.692603 32.301531 7.275298
2006-07-26 07:47:02 51°16.103 2°52.266 22.2701 4.69313 32.304584 7.309007
2006-07-26 07:47:08 51°16.099 2°52.261 22.2725 4.693025 32.300738 7.275298
2006-07-26 07:47:12 51°16.096 2°52.257 22.2745 4.693552 32.302274 7.275298
2006-07-26 07:47:16 51°16.094 2°52.253 22.2773 4.692708 32.294259 7.241589
2006-07-26 07:47:22 51°16.09 2°52.247 22.278 4.692708 32.294259 7.241589
2006-07-26 07:47:28 51°16.086 2°52.242 22.2796 4.693341 32.296608 7.309007
2006-07-26 07:47:32 51°16.083 2°52.238 22.2813 4.692814 32.291536 7.275298
2006-07-26 07:47:37 51°16.08 2°52.233 22.2825 4.693025 32.29215 7.275298
2006-07-26 07:47:42 51°16.076 2°52.228 22.2848 4.693446 32.292369 7.275298
2006-07-26 07:47:47 51°16.073 2°52.224 22.2852 4.69313 32.289932 7.275298
2006-07-26 07:47:52 51°16.07 2°52.219 22.2875 4.69313 32.289932 7.275298
2006-07-26 07:47:57 51°16.066 2°52.215 22.2878 4.692708 32.284664 7.275298
2006-07-26 07:48:02 51°16.063 2°52.21 22.2887 4.692286 32.279901 7.275298
2006-07-26 07:48:07 51°16.06 2°52.205 22.2907 4.69313 32.284884 7.309007
2006-07-26 07:48:12 51°16.056 2°52.201 22.2921 4.692919 32.281745 7.275298
2006-07-26 07:48:18 51°16.052 2°52.195 22.2918 4.692181 32.276061 7.241589
2006-07-26 07:48:22 51°16.05 2°52.191 22.295 4.69313 32.281855 7.241589
2006-07-26 07:48:27 51°16.046 2°52.187 22.2956 4.69313 32.281855 7.241589
2006-07-26 07:48:32 51°16.043 2°52.182 22.2957 4.693024 32.27852 7.241589
2006-07-26 07:48:37 51°16.039 2°52.178 22.2978 4.693657 32.282888 7.241589
2006-07-26 07:48:42 51°16.036 2°52.174 22.2991 4.692497 32.272947 7.275298
2006-07-26 07:48:47 51°16.033 2°52.169 22.3012 4.692708 32.273058 7.241589
2006-07-26 07:48:52 51°16.029 2°52.164 22.3013 4.692708 32.273058 7.241589
2006-07-26 07:48:57 51°16.026 2°52.16 22.3013 4.69313 32.274792 7.275298
2006-07-26 07:49:02 51°16.023 2°52.155 22.3023 4.693235 32.276108 7.275298
2006-07-26 07:49:07 51°16.02 2°52.151 22.3039 4.692813 32.270339 7.241589
2006-07-26 07:49:12 51°16.016 2°52.147 22.3044 4.693024 32.27045 7.275298
2006-07-26 07:49:17 51°16.013 2°52.142 22.3043 4.693024 32.269945 7.275298
2006-07-26 07:49:22 51°16.01 2°52.138 22.3036 4.693024 32.269945 7.275298
2006-07-26 07:49:28 51°16.006 2°52.133 22.3054 4.693235 32.270056 7.342717
2006-07-26 07:49:32 51°16.003 2°52.129 22.3065 4.693024 32.267424 7.275298
2006-07-26 07:49:36 51°16 2°52.125 22.3081 4.692602 32.264177 7.275298
2006-07-26 07:49:42 51°15.996 2°52.12 22.3082 4.693024 32.266416 7.309007
2006-07-26 07:49:48 51°15.992 2°52.115 22.3102 4.693235 32.267535 7.275298
2006-07-26 07:49:52 51°15.99 2°52.112 22.3102 4.692813 32.264288 7.309007
2006-07-26 07:49:57 51°15.987 2°52.107 22.3124 4.692813 32.264288 7.309007
2006-07-26 07:50:02 51°15.983 2°52.103 22.3133 4.693341 32.267842 7.241589
2006-07-26 07:50:07 51°15.98 2°52.099 22.3145 4.692919 32.262076 7.309007
2006-07-26 07:50:12 51°15.977 2°52.094 22.3141 4.692919 32.262076 7.241589
2006-07-26 07:50:17 51°15.973 2°52.09 22.3155 4.692813 32.261264 7.309007
2006-07-26 07:50:22 51°15.97 2°52.086 22.3167 4.692813 32.261264 7.309007
2006-07-26 07:50:27 51°15.967 2°52.082 22.3172 4.692813 32.261264 7.309007
2006-07-26 07:50:32 51°15.964 2°52.077 22.3194 4.693235 32.26199 7.275298
2006-07-26 07:50:38 51°15.96 2°52.072 22.3199 4.692919 32.259052 7.275298
2006-07-26 07:50:42 51°15.957 2°52.068 22.3204 4.693657 32.263725 7.241589
2006-07-26 07:50:47 51°15.954 2°52.064 22.3193 4.692602 32.255106 7.275298
2006-07-26 07:50:52 51°15.95 2°52.06 22.3197 4.692602 32.255106 7.275298
2006-07-26 07:50:56 51°15.948 2°52.056 22.3218 4.692919 32.256533 7.275298
2006-07-26 07:51:02 51°15.944 2°52.051 22.3221 4.693762 32.261009 7.275298
2006-07-26 07:51:07 51°15.941 2°52.047 22.3228 4.693129 32.25614 7.241589
2006-07-26 07:51:12 51°15.937 2°52.043 22.3221 4.680686 32.161424 7.275298
2006-07-26 07:51:17 51°15.934 2°52.038 22.3233 4.692497 32.249258 7.241589
2006-07-26 07:51:22 51°15.931 2°52.034 22.325 4.693129 32.253622 7.275298
2006-07-26 07:51:27 51°15.927 2°52.03 22.3247 4.693129 32.253622 7.275298
2006-07-26 07:51:32 51°15.924 2°52.025 22.3253 4.693024 32.25281 7.309007
2006-07-26 07:51:37 51°15.921 2°52.021 22.3265 4.692918 32.251999 7.275298
2006-07-26 07:51:42 51°15.918 2°52.017 22.3264 4.692918 32.250488 7.241589
2006-07-26 07:51:47 51°15.914 2°52.012 22.3269 4.693235 32.251915 7.241589
2006-07-26 07:51:52 51°15.911 2°52.008 22.3286 4.693235 32.251915 7.241589
2006-07-26 07:51:57 51°15.908 2°52.004 22.3281 4.693551 32.253845 7.309007
2006-07-26 07:52:01 51°15.905 2°52 22.3301 4.692708 32.247859 7.275298
2006-07-26 07:52:07 51°15.901 2°51.995 22.3327 4.692813 32.247663 7.275298
2006-07-26 07:52:12 51°15.898 2°51.991 22.3327 4.692602 32.246544 7.241589
2006-07-26 07:52:17 51°15.894 2°51.986 22.3309 4.692707 32.245845 7.241589
2006-07-26 07:52:22 51°15.891 2°51.982 22.3323 4.692707 32.245845 7.241589
2006-07-26 07:52:27 51°15.888 2°51.978 22.3324 4.692602 32.244027 7.241589
2006-07-26 07:52:33 51°15.884 2°51.972 22.3351 4.693129 32.247579 7.241589
2006-07-26 07:52:37 51°15.881 2°51.969 22.3357 4.692707 32.244334 7.241589
2006-07-26 07:52:41 51°15.879 2°51.965 22.3385 4.693024 32.245257 7.275298
2006-07-26 07:52:47 51°15.875 2°51.96 22.3365 4.692918 32.243943 7.275298
2006-07-26 07:52:52 51°15.872 2°51.955 22.3394 4.692918 32.243943 7.275298
2006-07-26 07:52:57 51°15.869 2°51.951 22.3393 4.692602 32.241006 7.241589
2006-07-26 07:53:02 51°15.865 2°51.947 22.3406 4.692813 32.242125 7.275298
2006-07-26 07:53:06 51°15.863 2°51.943 22.3404 4.692391 32.238378 7.241589
2006-07-26 07:53:12 51°15.859 2°51.938 22.3414 4.693129 32.243048 7.241589
2006-07-26 07:53:17 51°15.856 2°51.933 22.344 4.692707 32.238295 7.241589
2006-07-26 07:53:22 51°15.853 2°51.929 22.344 4.692496 32.236673 7.241589
2006-07-26 07:53:27 51°15.849 2°51.924 22.3445 4.692496 32.236673 7.241589
2006-07-26 07:53:32 51°15.846 2°51.92 22.3439 4.692602 32.236477 7.275298
2006-07-26 07:53:37 51°15.843 2°51.915 22.349 4.692602 32.23698 7.275298
2006-07-26 07:53:42 51°15.84 2°51.911 22.3482 4.691653 32.227167 7.241589
2006-07-26 07:53:47 51°15.837 2°51.907 22.3504 4.69218 32.231724 7.241589
2006-07-26 07:53:52 51°15.833 2°51.903 22.3506 4.69218 32.231724 7.241589
2006-07-26 07:53:57 51°15.83 2°51.898 22.3502 4.692707 32.235779 7.241589
2006-07-26 07:54:02 51°15.827 2°51.894 22.3521 4.692602 32.232453 7.275298
2006-07-26 07:54:07 51°15.824 2°51.889 22.3531 4.692496 32.231642 7.241589
2006-07-26 07:54:12 51°15.82 2°51.885 22.3546 4.691758 32.225966 7.241589
2006-07-26 07:54:16 51°15.818 2°51.881 22.3539 4.692391 32.228316 7.241589
2006-07-26 07:54:22 51°15.814 2°51.876 22.3563 4.692391 32.228316 7.241589
2006-07-26 07:54:26 51°15.811 2°51.873 22.3566 4.689544 32.205421 7.275298
2006-07-26 07:54:32 51°15.807 2°51.867 22.3578 4.68986 32.206848 7.207879
2006-07-26 07:54:37 51°15.804 2°51.863 22.3583 4.689754 32.206037 7.275298
2006-07-26 07:54:42 51°15.801 2°51.859 22.3583 4.689333 32.20179 7.275298
2006-07-26 07:54:47 51°15.798 2°51.854 22.3599 4.692285 32.223483 7.241589
2006-07-26 07:54:52 51°15.795 2°51.85 22.3603 4.688805 32.19623 7.241589
2006-07-26 07:54:57 51°15.792 2°51.846 22.3626 4.688805 32.19623 7.241589
2006-07-26 07:55:02 51°15.788 2°51.841 22.3641 4.688911 32.196036 7.241589
2006-07-26 07:55:07 51°15.785 2°51.837 22.3655 4.692074 32.219851 7.241589
2006-07-26 07:55:12 51°15.782 2°51.832 22.3683 4.69218 32.218651 7.241589
2006-07-26 07:55:17 51°15.779 2°51.827 22.3665 4.692496 32.22058 7.275298
2006-07-26 07:55:22 51°15.776 2°51.823 22.3671 4.692496 32.22058 7.275298
2006-07-26 07:55:27 51°15.773 2°51.819 22.3673 4.692602 32.220888 7.241589
2006-07-26 07:55:32 51°15.769 2°51.814 22.369 4.692285 32.218456 7.241589
2006-07-26 07:55:37 51°15.766 2°51.81 22.3698 4.692285 32.216949 7.207879
2006-07-26 07:55:42 51°15.763 2°51.805 22.3711 4.691969 32.214517 7.275298
2006-07-26 07:55:47 51°15.759 2°51.801 22.3706 4.691758 32.210887 7.241589
2006-07-26 07:55:52 51°15.756 2°51.797 22.3727 4.691758 32.210887 7.241589
2006-07-26 07:55:57 51°15.753 2°51.792 22.3727 4.692285 32.213432 7.275298
2006-07-26 07:56:02 51°15.75 2°51.788 22.3741 4.692918 32.216787 7.241589
2006-07-26 07:56:06 51°15.747 2°51.784 22.3728 4.692074 32.210806 7.241589
2006-07-26 07:56:12 51°15.744 2°51.779 22.3753 4.691863 32.208683 7.275298
2006-07-26 07:56:17 51°15.741 2°51.774 22.3755 4.69218 32.209607 7.207879
2006-07-26 07:56:22 51°15.737 2°51.77 22.376 4.69218 32.209607 7.207879
2006-07-26 07:56:27 51°15.734 2°51.765 22.378 4.692601 32.211342 7.241589
2006-07-26 07:56:32 51°15.731 2°51.761 22.3784 4.69239 32.210223 7.275298
2006-07-26 07:56:37 51°15.728 2°51.756 22.3775 4.69239 32.209219 7.275298
2006-07-26 07:56:42 51°15.725 2°51.752 22.3779 4.692285 32.207404 7.241589
2006-07-26 07:56:47 51°15.722 2°51.747 22.3781 4.692707 32.210143 7.275298
2006-07-26 07:56:52 51°15.719 2°51.743 22.3781 4.691969 32.203969 7.275298
2006-07-26 07:56:57 51°15.715 2°51.738 22.3789 4.691969 32.203969 7.275298
2006-07-26 07:57:02 51°15.712 2°51.734 22.3789 4.692179 32.205087 7.275298
2006-07-26 07:57:07 51°15.709 2°51.73 22.3812 4.691969 32.202965 7.241589
2006-07-26 07:57:12 51°15.706 2°51.725 22.3788 4.692074 32.203273 7.241589
2006-07-26 07:57:17 51°15.703 2°51.721 22.3829 4.691863 32.201151 7.275298
2006-07-26 07:57:22 51°15.7 2°51.716 22.382 4.691863 32.201151 7.275298
2006-07-26 07:57:27 51°15.697 2°51.712 22.3805 4.692074 32.202771 7.309007
2006-07-26 07:57:32 51°15.694 2°51.707 22.3815 4.69239 32.205704 7.309007
2006-07-26 07:57:37 51°15.691 2°51.703 22.3834 4.692285 32.203387 7.309007
2006-07-26 07:57:42 51°15.688 2°51.699 22.3831 4.692285 32.203889 7.275298
2006-07-26 07:57:47 51°15.685 2°51.694 22.3826 4.692812 32.205932 7.241589
2006-07-26 07:57:52 51°15.682 2°51.69 22.3832 4.692812 32.205932 7.241589
2006-07-26 07:57:57 51°15.679 2°51.685 22.3845 4.692179 32.201071 7.241589
2006-07-26 07:58:02 51°15.676 2°51.68 22.3835 4.692918 32.20624 7.275298
2006-07-26 07:58:07 51°15.674 2°51.676 22.383 4.692496 32.201995 7.275298
2006-07-26 07:58:12 51°15.671 2°51.671 22.3823 4.692601 32.202806 7.275298
2006-07-26 07:58:17 51°15.668 2°51.667 22.385 4.691863 32.197637 7.275298
2006-07-26 07:58:22 51°15.665 2°51.662 22.3837 4.692074 32.198755 7.275298
2006-07-26 07:58:27 51°15.663 2°51.657 22.3823 4.692074 32.198755 7.275298
2006-07-26 07:58:32 51°15.66 2°51.653 22.3827 4.692601 32.201802 7.309007
2006-07-26 07:58:37 51°15.657 2°51.648 22.3835 4.692496 32.200992 7.309007
2006-07-26 07:58:42 51°15.655 2°51.643 22.3864 4.692812 32.202418 7.309007
2006-07-26 07:58:48 51°15.652 2°51.638 22.3848 4.691652 32.194511 7.309007
2006-07-26 07:58:52 51°15.65 2°51.634 22.3854 4.692812 32.203924 7.342717
2006-07-26 07:58:57 51°15.648 2°51.629 22.3851 4.692812 32.203924 7.342717
2006-07-26 07:59:02 51°15.645 2°51.625 22.3878 4.691652 32.194511 7.309007
2006-07-26 07:59:08 51°15.642 2°51.619 22.3865 4.692074 32.197751 7.275298
2006-07-26 07:59:12 51°15.64 2°51.615 22.3889 4.692179 32.198561 7.275298
2006-07-26 07:59:17 51°15.638 2°51.611 22.3883 4.691968 32.197945 7.309007
2006-07-26 07:59:22 51°15.636 2°51.606 22.389 4.691968 32.197945 7.309007
2006-07-26 07:59:27 51°15.634 2°51.602 22.3877 4.69239 32.19968 7.309007
2006-07-26 07:59:32 51°15.632 2°51.597 22.3897 4.691863 32.195128 7.275298
2006-07-26 07:59:37 51°15.63 2°51.592 22.3906 4.692285 32.197866 7.309007
2006-07-26 07:59:42 51°15.627 2°51.588 22.3911 4.692812 32.201414 7.275298
2006-07-26 07:59:46 51°15.626 2°51.584 22.3915 4.691863 32.193622 7.309007
2006-07-26 07:59:52 51°15.623 2°51.578 22.3914 4.691863 32.193622 7.309007
2006-07-26 07:59:57 51°15.621 2°51.574 22.3926 4.69239 32.195665 7.275298
2006-07-26 08:00:02 51°15.619 2°51.569 22.3919 4.692179 32.19555 7.309007
2006-07-26 08:00:07 51°15.617 2°51.564 22.3929 4.692074 32.19474 7.275298
2006-07-26 08:00:12 51°15.615 2°51.559 22.3925 4.691441 32.188877 7.275298
2006-07-26 08:00:18 51°15.613 2°51.553 22.3927 4.691652 32.189995 7.275298
2006-07-26 08:00:22 51°15.611 2°51.549 22.3921 4.692179 32.193543 7.342717
2006-07-26 08:00:27 51°15.609 2°51.545 22.3919 4.692179 32.193543 7.342717
2006-07-26 08:00:32 51°15.607 2°51.54 22.3918 4.692601 32.195278 7.309007
2006-07-26 08:00:36 51°15.605 2°51.537 22.3925 4.69239 32.19416 7.309007
2006-07-26 08:00:42 51°15.603 2°51.531 22.3944 4.692074 32.191228 7.275298
2006-07-26 08:00:47 51°15.601 2°51.526 22.3929 4.691863 32.188606 7.342717
2006-07-26 08:00:52 51°15.599 2°51.522 22.3926 4.692074 32.189724 7.342717
2006-07-26 08:00:57 51°15.597 2°51.517 22.3939 4.692074 32.189724 7.342717
2006-07-26 08:01:02 51°15.595 2°51.513 22.395 4.692285 32.19335 7.342717
2006-07-26 08:01:07 51°15.593 2°51.508 22.3943 4.691757 32.188799 7.342717
2006-07-26 08:01:12 51°15.591 2°51.503 22.3937 4.692179 32.191537 7.342717
2006-07-26 08:01:17 51°15.589 2°51.498 22.3956 4.69239 32.192655 7.309007
2006-07-26 08:01:22 51°15.587 2°51.494 22.3975 4.69239 32.192655 7.309007
2006-07-26 08:01:27 51°15.585 2°51.489 22.3971 4.692074 32.190225 7.309007
2006-07-26 08:01:32 51°15.583 2°51.485 22.3965 4.692179 32.190533 7.342717
2006-07-26 08:01:37 51°15.581 2°51.48 22.3981 4.691968 32.19092 7.342717
2006-07-26 08:01:42 51°15.579 2°51.475 22.3978 4.691863 32.188104 7.342717
2006-07-26 08:01:47 51°15.577 2°51.471 22.3987 4.691757 32.187796 7.309007
2006-07-26 08:01:52 51°15.575 2°51.466 22.3977 4.691968 32.188914 7.309007
2006-07-26 08:01:57 51°15.573 2°51.461 22.403 4.691968 32.188914 7.309007
2006-07-26 08:02:02 51°15.571 2°51.457 22.4034 4.692601 32.193773 7.309007
2006-07-26 08:02:07 51°15.569 2°51.452 22.3988 4.691546 32.184671 7.342717
2006-07-26 08:02:12 51°15.567 2°51.447 22.3989 4.691757 32.186291 7.342717
2006-07-26 08:02:17 51°15.566 2°51.442 22.3992 4.691968 32.186908 7.376426
2006-07-26 08:02:23 51°15.564 2°51.436 22.4 4.691968 32.186908 7.376426
2006-07-26 08:02:27 51°15.562 2°51.433 22.3987 4.691863 32.186098 7.342717
2006-07-26 08:02:32 51°15.561 2°51.428 22.4012 4.692601 32.191265 7.376426
2006-07-26 08:02:37 51°15.559 2°51.423 22.4026 4.69239 32.188141 7.342717
2006-07-26 08:02:42 51°15.557 2°51.419 22.4017 4.691968 32.184902 7.342717
2006-07-26 08:02:47 51°15.555 2°51.414 22.4004 4.691652 32.183977 7.342717
2006-07-26 08:02:52 51°15.553 2°51.409 22.4025 4.691652 32.183977 7.342717
2006-07-26 08:02:57 51°15.552 2°51.403 22.4037 4.691968 32.184902 7.376426
2006-07-26 08:03:02 51°15.55 2°51.398 22.4041 4.691968 32.184902 7.342717
2006-07-26 08:03:07 51°15.548 2°51.392 22.4073 4.69123 32.181239 7.376426
2006-07-26 08:03:12 51°15.546 2°51.387 22.4068 4.691441 32.179349 7.376426
2006-07-26 08:03:17 51°15.545 2°51.381 22.4059 4.691968 32.183899 7.376426
2006-07-26 08:03:22 51°15.543 2°51.375 22.4059 4.691968 32.183899 7.376426
2006-07-26 08:03:27 51°15.541 2°51.369 22.4071 4.692284 32.184824 7.342717
2006-07-26 08:03:31 51°15.54 2°51.364 22.4057 4.691652 32.18147 7.410136
2006-07-26 08:03:36 51°15.539 2°51.358 22.4079 4.690914 32.177306 7.376426
2006-07-26 08:03:42 51°15.537 2°51.35 22.4053 4.692284 32.18332 7.376426
2006-07-26 08:03:47 51°15.536 2°51.344 22.4073 4.692074 32.182703 7.342717
2006-07-26 08:03:51 51°15.534 2°51.339 22.4048 4.690914 32.174799 7.376426
2006-07-26 08:03:57 51°15.533 2°51.331 22.4077 4.690914 32.174799 7.376426
2006-07-26 08:04:02 51°15.531 2°51.324 22.4028 4.691863 32.180081 7.342717
2006-07-26 08:04:07 51°15.53 2°51.317 22.4052 4.692074 32.180698 7.410136
2006-07-26 08:04:12 51°15.529 2°51.31 22.4044 4.692074 32.1817 7.376426
2006-07-26 08:04:17 51°15.528 2°51.303 22.4052 4.691546 32.17665 7.342717